| time (UTC) | temp F | wind direction | speed knots | gust knots | rain 1hr in | rain 24hr in | rain mn in | humidity % | barometer mb |
| 20260902193016 | 88 | 5 | 0.0 | 0.0 | 0.00 | 0.00 | 0.00 | 62 | 1021.3 |
| 20260902192914 | 88 | 53 | 0.0 | 0.0 | 0.00 | 0.00 | 0.00 | 60 | 1021.3 |
| 20260902192815 | 88 | 40 | 0.0 | 0.0 | 0.00 | 0.00 | 0.00 | 62 | 1021.3 |
| 20260902192712 | 88 | 344 | 0.0 | 0.0 | 0.00 | 0.00 | 0.00 | 62 | 1021.3 |
| 20260902192613 | 88 | 342 | 0.0 | 0.0 | 0.00 | 0.00 | 0.00 | 61 | 1021.4 |
| 20260902192506 | 88 | 342 | 0.0 | 0.0 | 0.00 | 0.00 | 0.00 | 59 | 1021.4 |
| 20260902192405 | 88 | 328 | 0.0 | 0.0 | 0.00 | 0.00 | 0.00 | 60 | 1021.3 |
| 20260902192307 | 88 | 334 | 0.0 | 0.0 | 0.00 | 0.00 | 0.00 | 62 | 1021.3 |
| 20260902192205 | 88 | 325 | 0.0 | 0.0 | 0.00 | 0.00 | 0.00 | 63 | 1021.3 |
| 20260902192106 | 88 | 348 | 0.0 | 0.0 | 0.00 | 0.00 | 0.00 | 65 | 1021.3 |
| 20260902192006 | 88 | 49 | 0.0 | 0.0 | 0.00 | 0.00 | 0.00 | 61 | 1021.4 |
| 20260902191905 | 88 | 49 | 0.0 | 0.0 | 0.00 | 0.00 | 0.00 | 61 | 1021.4 |
| 20260902191806 | 88 | 45 | 0.0 | 0.0 | 0.00 | 0.00 | 0.00 | 62 | 1021.3 |
| 20260902191705 | 88 | 28 | 0.0 | 0.0 | 0.00 | 0.00 | 0.00 | 59 | 1021.4 |
| 20260902191606 | 88 | 26 | 0.0 | 0.0 | 0.00 | 0.00 | 0.00 | 62 | 1021.3 |
| 20260902191506 | 88 | 13 | 0.0 | 0.0 | 0.00 | 0.00 | 0.00 | 62 | 1021.3 |
| 20260902191407 | 88 | 9 | 0.0 | 0.0 | 0.00 | 0.00 | 0.00 | 64 | 1021.4 |
| 20260902191306 | 88 | 20 | 0.0 | 0.0 | 0.00 | 0.00 | 0.00 | 61 | 1021.4 |
| 20260902191207 | 88 | 14 | 0.0 | 0.0 | 0.00 | 0.00 | 0.00 | 63 | 1021.4 |
| 20260902191105 | 88 | 14 | 0.0 | 0.0 | 0.00 | 0.00 | 0.00 | 61 | 1021.4 |
| 20260902191005 | 88 | 17 | 0.0 | 0.0 | 0.00 | 0.00 | 0.00 | 60 | 1021.4 |
| 20260902190907 | 88 | 336 | 0.0 | 0.0 | 0.00 | 0.00 | 0.00 | 61 | 1021.4 |
| 20260902190804 | 88 | 347 | 0.0 | 0.0 | 0.00 | 0.00 | 0.00 | 60 | 1021.5 |
| 20260902190705 | 88 | 346 | 0.0 | 0.0 | 0.00 | 0.00 | 0.00 | 60 | 1021.4 |
| 20260902190603 | 88 | 346 | 0.0 | 0.0 | 0.00 | 0.00 | 0.00 | 62 | 1021.4 |
| 20260902190502 | 88 | 280 | 0.0 | 0.0 | 0.00 | 0.00 | 0.00 | 62 | 1021.4 |
| 20260902190401 | 88 | 327 | 0.0 | 0.0 | 0.00 | 0.00 | 0.00 | 63 | 1021.4 |
| 20260902190302 | 88 | 329 | 0.0 | 0.0 | 0.00 | 0.00 | 0.00 | 61 | 1021.3 |
| 20260902190202 | 88 | 351 | 0.0 | 0.0 | 0.00 | 0.00 | 0.00 | 64 | 1021.4 |
| 20260902190002 | 88 | 26 | 0.0 | 0.0 | 0.00 | 0.00 | 0.00 | 62 | 1021.4 |
| 20260902185903 | 88 | 355 | 0.0 | 0.0 | 0.00 | 0.00 | 0.00 | 62 | 1021.5 |
| 20260902185801 | 88 | 5 | 0.0 | 0.0 | 0.00 | 0.00 | 0.00 | 63 | 1021.4 |
| 20260902185703 | 88 | 9 | 0.0 | 0.0 | 0.00 | 0.00 | 0.00 | 62 | 1021.5 |
| 20260902185602 | 88 | 53 | 0.0 | 0.0 | 0.00 | 0.00 | 0.00 | 65 | 1021.5 |
| 20260902185503 | 88 | 54 | 0.0 | 0.0 | 0.00 | 0.00 | 0.00 | 61 | 1021.5 |
| 20260902185359 | 88 | 22 | 0.0 | 0.0 | 0.00 | 0.00 | 0.00 | 62 | 1021.5 |
| 20260902185301 | 88 | 355 | 0.0 | 0.0 | 0.00 | 0.00 | 0.00 | 62 | 1021.5 |
| 20260902185200 | 88 | 24 | 0.0 | 0.0 | 0.00 | 0.00 | 0.00 | 62 | 1021.6 |
| 20260902185057 | 88 | 23 | 0.0 | 0.0 | 0.00 | 0.00 | 0.00 | 63 | 1021.6 |
| 20260902184959 | 88 | 25 | 0.0 | 0.0 | 0.00 | 0.00 | 0.00 | 61 | 1021.6 |
| 20260902184859 | 88 | 20 | 0.0 | 0.0 | 0.00 | 0.00 | 0.00 | 61 | 1021.6 |
| 20260902184758 | 88 | 337 | 0.0 | 0.0 | 0.00 | 0.00 | 0.00 | 63 | 1021.6 |
| 20260902184657 | 88 | 329 | 0.0 | 0.0 | 0.00 | 0.00 | 0.00 | 64 | 1021.5 |
| 20260902184557 | 88 | 355 | 0.0 | 0.0 | 0.00 | 0.00 | 0.00 | 65 | 1021.6 |
| 20260902184458 | 88 | 329 | 0.0 | 0.0 | 0.00 | 0.00 | 0.00 | 64 | 1021.6 |
| 20260902184351 | 88 | 342 | 0.0 | 3.5 | 0.00 | 0.00 | 0.00 | 65 | 1021.7 |
| 20260902184250 | 88 | 13 | 0.0 | 3.5 | 0.00 | 0.00 | 0.00 | 63 | 1021.6 |
| 20260902184149 | 88 | 13 | 0.0 | 3.5 | 0.00 | 0.00 | 0.00 | 62 | 1021.6 |
| 20260902184051 | 88 | 13 | 0.0 | 3.5 | 0.00 | 0.00 | 0.00 | 63 | 1021.7 |
| 20260902183949 | 88 | 13 | 0.0 | 3.5 | 0.00 | 0.00 | 0.00 | 61 | 1021.7 |
| 20260902183850 | 88 | 45 | 0.0 | 3.5 | 0.00 | 0.00 | 0.00 | 61 | 1021.7 |
| 20260902183749 | 88 | 45 | 0.9 | 3.5 | 0.00 | 0.00 | 0.00 | 61 | 1021.9 |
| 20260902183649 | 88 | 42 | 0.9 | 3.5 | 0.00 | 0.00 | 0.00 | 60 | 1021.9 |
| 20260902183550 | 88 | 239 | 0.9 | 3.5 | 0.00 | 0.00 | 0.00 | 60 | 1021.9 |
| 20260902183449 | 88 | 238 | 0.9 | 3.5 | 0.00 | 0.00 | 0.00 | 60 | 1021.9 |
| 20260902183351 | 88 | 275 | 0.9 | 4.3 | 0.00 | 0.00 | 0.00 | 61 | 1021.7 |
| 20260902183249 | 88 | 294 | 0.9 | 7.0 | 0.00 | 0.00 | 0.00 | 63 | 1021.7 |
| 20260902183149 | 88 | 342 | 0.9 | 7.0 | 0.00 | 0.00 | 0.00 | 63 | 1021.7 |
| 20260902183050 | 88 | 23 | 1.7 | 7.0 | 0.00 | 0.00 | 0.00 | 62 | 1021.7 |
| 20260902182949 | 88 | 22 | 1.7 | 7.0 | 0.00 | 0.00 | 0.00 | 64 | 1021.9 |
| 20260902182849 | 88 | 14 | 1.7 | 7.0 | 0.00 | 0.00 | 0.00 | 65 | 1021.9 |
| 20260902182751 | 87 | 10 | 1.7 | 7.0 | 0.00 | 0.00 | 0.00 | 64 | 1021.7 |
| 20260902182651 | 87 | 5 | 1.7 | 7.0 | 0.00 | 0.00 | 0.00 | 63 | 1021.7 |
| 20260902182549 | 87 | 5 | 1.7 | 7.0 | 0.00 | 0.00 | 0.00 | 62 | 1021.9 |
| 20260902182449 | 87 | 5 | 1.7 | 7.0 | 0.00 | 0.00 | 0.00 | 62 | 1021.6 |
| 20260902182351 | 87 | 5 | 0.9 | 7.0 | 0.00 | 0.00 | 0.00 | 62 | 1021.7 |
| 20260902182250 | 87 | 19 | 0.9 | 6.1 | 0.00 | 0.00 | 0.00 | 63 | 1021.7 |
| 20260902182150 | 88 | 355 | 0.9 | 6.1 | 0.00 | 0.00 | 0.00 | 63 | 1021.6 |
| 20260902182049 | 87 | 342 | 0.9 | 6.1 | 0.00 | 0.00 | 0.00 | 63 | 1021.7 |
| 20260902181949 | 88 | 5 | 0.0 | 3.5 | 0.00 | 0.00 | 0.00 | 64 | 1021.7 |
| 20260902181851 | 87 | 319 | 0.9 | 3.5 | 0.00 | 0.00 | 0.00 | 62 | 1021.9 |
| 20260902181750 | 87 | 19 | 0.9 | 3.5 | 0.00 | 0.00 | 0.00 | 61 | 1021.6 |
| 20260902181650 | 87 | 19 | 0.9 | 4.3 | 0.00 | 0.00 | 0.00 | 62 | 1021.9 |
| 20260902181549 | 88 | 15 | 0.9 | 6.1 | 0.00 | 0.00 | 0.00 | 64 | 1021.9 |
| 20260902181450 | 88 | 315 | 0.9 | 6.1 | 0.00 | 0.00 | 0.00 | 64 | 1021.7 |
| 20260902181351 | 87 | 305 | 0.9 | 6.1 | 0.00 | 0.00 | 0.00 | 62 | 1021.9 |
| 20260902181249 | 87 | 281 | 0.9 | 6.1 | 0.00 | 0.00 | 0.00 | 64 | 1021.9 |
| 20260902181151 | 87 | 339 | 0.9 | 6.1 | 0.00 | 0.00 | 0.00 | 64 | 1021.9 |
| 20260902181046 | 87 | 332 | 0.9 | 6.1 | 0.00 | 0.00 | 0.00 | 62 | 1021.9 |
| 20260902180945 | 87 | 346 | 0.9 | 6.1 | 0.00 | 0.00 | 0.00 | 64 | 1021.9 |
| 20260902180847 | 87 | 22 | 0.9 | 6.1 | 0.00 | 0.00 | 0.00 | 63 | 1021.9 |
| 20260902180745 | 87 | 5 | 0.9 | 6.1 | 0.00 | 0.00 | 0.00 | 61 | 1022.0 |
| 20260902180646 | 87 | 17 | 0.0 | 6.1 | 0.00 | 0.00 | 0.00 | 63 | 1021.9 |
| 20260902180545 | 87 | 9 | 0.0 | 3.5 | 0.00 | 0.00 | 0.00 | 64 | 1021.7 |
| 20260902180447 | 87 | 17 | 0.0 | 3.5 | 0.00 | 0.00 | 0.00 | 63 | 1021.7 |
| 20260902180345 | 87 | 42 | 0.0 | 3.5 | 0.00 | 0.00 | 0.00 | 63 | 1021.9 |
| 20260902180246 | 87 | 13 | 0.0 | 3.5 | 0.00 | 0.00 | 0.00 | 62 | 1021.9 |
| 20260902180147 | 87 | 0 | 0.0 | 3.5 | 0.00 | 0.00 | 0.00 | 63 | 1021.9 |
| 20260902180047 | 87 | 0 | 0.0 | 4.3 | 0.00 | 0.00 | 0.00 | 66 | 1021.9 |
| 20260902175946 | 87 | 44 | 0.0 | 4.3 | 0.00 | 0.00 | 0.00 | 64 | 1021.9 |
| 20260902175847 | 87 | 355 | 0.9 | 4.3 | 0.00 | 0.00 | 0.00 | 63 | 1022.0 |
| 20260902175745 | 87 | 355 | 0.9 | 7.0 | 0.00 | 0.00 | 0.00 | 66 | 1021.9 |
| 20260902175646 | 87 | 342 | 0.9 | 7.0 | 0.00 | 0.00 | 0.00 | 63 | 1021.9 |
| 20260902175545 | 87 | 25 | 0.9 | 7.0 | 0.00 | 0.00 | 0.00 | 61 | 1021.9 |
| 20260902175447 | 87 | 14 | 1.7 | 7.0 | 0.00 | 0.00 | 0.00 | 63 | 1022.0 |
| 20260902175346 | 87 | 13 | 1.7 | 7.0 | 0.00 | 0.00 | 0.00 | 62 | 1021.9 |
| 20260902175246 | 87 | 11 | 1.7 | 7.0 | 0.00 | 0.00 | 0.00 | 64 | 1022.0 |
| 20260902175146 | 87 | 15 | 2.6 | 7.0 | 0.00 | 0.00 | 0.00 | 65 | 1022.0 |
| 20260902175045 | 87 | 355 | 2.6 | 7.0 | 0.00 | 0.00 | 0.00 | 64 | 1022.0 |
| 20260902174947 | 87 | 324 | 2.6 | 7.0 | 0.00 | 0.00 | 0.00 | 63 | 1022.0 |
| 20260902174845 | 87 | 335 | 2.6 | 7.0 | 0.00 | 0.00 | 0.00 | 63 | 1022.0 |
| 20260902174745 | 87 | 342 | 2.6 | 6.1 | 0.00 | 0.00 | 0.00 | 64 | 1022.0 |
| 20260902174647 | 87 | 5 | 3.5 | 6.1 | 0.00 | 0.00 | 0.00 | 66 | 1022.0 |
| 20260902174545 | 87 | 0 | 3.5 | 6.1 | 0.00 | 0.00 | 0.00 | 67 | 1022.0 |
| 20260902174445 | 87 | 11 | 3.5 | 7.0 | 0.00 | 0.00 | 0.00 | 68 | 1022.0 |
| 20260902174345 | 87 | 329 | 2.6 | 7.0 | 0.00 | 0.00 | 0.00 | 66 | 1022.0 |
| 20260902174245 | 87 | 345 | 2.6 | 7.0 | 0.00 | 0.00 | 0.00 | 64 | 1022.0 |
| 20260902174145 | 87 | 304 | 2.6 | 7.0 | 0.00 | 0.00 | 0.00 | 64 | 1022.0 |
| 20260902174046 | 87 | 5 | 2.6 | 7.0 | 0.00 | 0.00 | 0.00 | 64 | 1022.1 |
| 20260902173946 | 87 | 320 | 2.6 | 7.0 | 0.00 | 0.00 | 0.00 | 64 | 1022.1 |
| 20260902173846 | 87 | 348 | 2.6 | 7.0 | 0.00 | 0.00 | 0.00 | 65 | 1022.1 |
| 20260902173745 | 87 | 329 | 2.6 | 7.0 | 0.00 | 0.00 | 0.00 | 65 | 1022.1 |
| 20260902173646 | 87 | 355 | 2.6 | 7.0 | 0.00 | 0.00 | 0.00 | 67 | 1022.1 |
| 20260902173546 | 87 | 331 | 2.6 | 7.0 | 0.00 | 0.00 | 0.00 | 64 | 1022.2 |
| 20260902173447 | 87 | 0 | 2.6 | 7.0 | 0.00 | 0.00 | 0.00 | 66 | 1022.1 |
| 20260902173345 | 87 | 344 | 2.6 | 7.0 | 0.00 | 0.00 | 0.00 | 68 | 1022.2 |
| 20260902173246 | 87 | 342 | 2.6 | 7.0 | 0.00 | 0.00 | 0.00 | 68 | 1022.2 |
| 20260902173147 | 87 | 343 | 2.6 | 7.0 | 0.00 | 0.00 | 0.00 | 66 | 1022.1 |
| 20260902173045 | 87 | 318 | 2.6 | 7.0 | 0.00 | 0.00 | 0.00 | 64 | 1022.2 |
| 20260902172945 | 87 | 320 | 2.6 | 7.0 | 0.00 | 0.00 | 0.00 | 68 | 1022.1 |
| 20260902172846 | 87 | 301 | 2.6 | 7.0 | 0.00 | 0.00 | 0.00 | 64 | 1022.2 |
| 20260902172745 | 87 | 326 | 1.7 | 7.0 | 0.00 | 0.00 | 0.00 | 67 | 1022.2 |
| 20260902172647 | 87 | 325 | 1.7 | 5.2 | 0.00 | 0.00 | 0.00 | 67 | 1022.2 |
| 20260902172546 | 87 | 21 | 1.7 | 4.3 | 0.00 | 0.00 | 0.00 | 65 | 1022.1 |
| 20260902172446 | 87 | 21 | 1.7 | 4.3 | 0.00 | 0.00 | 0.00 | 64 | 1022.2 |
| 20260902172343 | 87 | 327 | 1.7 | 4.3 | 0.00 | 0.00 | 0.00 | 65 | 1022.1 |
| 20260902172241 | 87 | 329 | 1.7 | 6.1 | 0.00 | 0.00 | 0.00 | 63 | 1022.2 |
| 20260902172142 | 87 | 327 | 1.7 | 6.1 | 0.00 | 0.00 | 0.00 | 64 | 1022.1 |
| 20260902172042 | 87 | 326 | 1.7 | 6.1 | 0.00 | 0.00 | 0.00 | 64 | 1022.3 |
| 20260902171941 | 87 | 326 | 1.7 | 6.1 | 0.00 | 0.00 | 0.00 | 68 | 1022.3 |
| 20260902171842 | 87 | 326 | 1.7 | 6.1 | 0.00 | 0.00 | 0.00 | 65 | 1022.3 |
| 20260902171743 | 87 | 314 | 2.6 | 6.1 | 0.00 | 0.00 | 0.00 | 64 | 1022.2 |
| 20260902171641 | 87 | 314 | 2.6 | 6.1 | 0.00 | 0.00 | 0.00 | 63 | 1022.3 |
| 20260902171541 | 87 | 314 | 2.6 | 6.1 | 0.00 | 0.00 | 0.00 | 65 | 1022.3 |
| 20260902171442 | 87 | 313 | 2.6 | 6.1 | 0.00 | 0.00 | 0.00 | 62 | 1022.3 |
| 20260902171343 | 87 | 300 | 2.6 | 6.1 | 0.00 | 0.00 | 0.00 | 62 | 1022.3 |
| 20260902171241 | 87 | 292 | 1.7 | 6.1 | 0.00 | 0.00 | 0.00 | 63 | 1022.4 |
| 20260902171142 | 87 | 306 | 1.7 | 6.1 | 0.00 | 0.00 | 0.00 | 65 | 1022.4 |
| 20260902171041 | 87 | 296 | 1.7 | 5.2 | 0.00 | 0.00 | 0.00 | 66 | 1022.3 |
| 20260902170942 | 87 | 5 | 1.7 | 5.2 | 0.00 | 0.00 | 0.00 | 67 | 1022.4 |
| 20260902170843 | 87 | 5 | 2.6 | 5.2 | 0.00 | 0.00 | 0.00 | 66 | 1022.2 |
| 20260902170741 | 87 | 351 | 2.6 | 5.2 | 0.00 | 0.00 | 0.00 | 63 | 1022.3 |
| 20260902170641 | 87 | 18 | 2.6 | 7.0 | 0.00 | 0.00 | 0.00 | 64 | 1022.3 |
| 20260902170541 | 87 | 284 | 2.6 | 7.0 | 0.00 | 0.00 | 0.00 | 65 | 1022.2 |
| 20260902170443 | 87 | 257 | 2.6 | 7.0 | 0.00 | 0.00 | 0.00 | 66 | 1022.3 |
| 20260902170341 | 87 | 286 | 2.6 | 7.0 | 0.00 | 0.00 | 0.00 | 65 | 1022.4 |
| 20260902170243 | 87 | 288 | 2.6 | 7.0 | 0.00 | 0.00 | 0.00 | 67 | 1022.4 |
| 20260902170142 | 86 | 355 | 2.6 | 7.0 | 0.00 | 0.00 | 0.00 | 67 | 1022.3 |
| 20260902170042 | 86 | 15 | 2.6 | 7.0 | 0.00 | 0.00 | 0.00 | 67 | 1022.4 |
| 20260902165941 | 86 | 355 | 2.6 | 7.0 | 0.00 | 0.00 | 0.00 | 64 | 1022.3 |
| 20260902165843 | 86 | 346 | 2.6 | 7.0 | 0.00 | 0.00 | 0.00 | 63 | 1022.4 |
| 20260902165742 | 86 | 332 | 2.6 | 7.0 | 0.00 | 0.00 | 0.00 | 64 | 1022.4 |
| 20260902165641 | 86 | 315 | 2.6 | 6.1 | 0.00 | 0.00 | 0.00 | 63 | 1022.4 |
| 20260902165542 | 86 | 302 | 2.6 | 7.0 | 0.00 | 0.00 | 0.00 | 63 | 1022.4 |
| 20260902165442 | 86 | 323 | 2.6 | 7.0 | 0.00 | 0.00 | 0.00 | 64 | 1022.4 |
| 20260902165343 | 86 | 323 | 2.6 | 7.0 | 0.00 | 0.00 | 0.00 | 64 | 1022.4 |
| 20260902165242 | 86 | 323 | 2.6 | 7.0 | 0.00 | 0.00 | 0.00 | 65 | 1022.5 |
| 20260902165142 | 86 | 323 | 2.6 | 7.0 | 0.00 | 0.00 | 0.00 | 66 | 1022.4 |
| 20260902165038 | 86 | 338 | 1.7 | 7.0 | 0.00 | 0.00 | 0.00 | 64 | 1022.4 |
| 20260902164937 | 86 | 337 | 2.6 | 7.0 | 0.00 | 0.00 | 0.00 | 64 | 1022.5 |
| 20260902164838 | 86 | 13 | 2.6 | 7.0 | 0.00 | 0.00 | 0.00 | 67 | 1022.5 |
| 20260902164737 | 86 | 355 | 1.7 | 7.0 | 0.00 | 0.00 | 0.00 | 66 | 1022.6 |
| 20260902164637 | 86 | 355 | 1.7 | 7.0 | 0.00 | 0.00 | 0.00 | 66 | 1022.6 |
| 20260902164538 | 86 | 349 | 1.7 | 4.3 | 0.00 | 0.00 | 0.00 | 65 | 1022.6 |
| 20260902164439 | 86 | 348 | 2.6 | 4.3 | 0.00 | 0.00 | 0.00 | 65 | 1022.5 |
| 20260902164337 | 86 | 347 | 2.6 | 4.3 | 0.00 | 0.00 | 0.00 | 65 | 1022.5 |
| 20260902164239 | 86 | 347 | 2.6 | 4.3 | 0.00 | 0.00 | 0.00 | 64 | 1022.6 |
| 20260902164138 | 86 | 347 | 2.6 | 4.3 | 0.00 | 0.00 | 0.00 | 64 | 1022.5 |
| 20260902164038 | 86 | 347 | 2.6 | 4.3 | 0.00 | 0.00 | 0.00 | 64 | 1022.6 |
| 20260902163937 | 86 | 340 | 2.6 | 5.2 | 0.00 | 0.00 | 0.00 | 65 | 1022.5 |
| 20260902163838 | 86 | 340 | 2.6 | 5.2 | 0.00 | 0.00 | 0.00 | 66 | 1022.5 |
| 20260902163737 | 86 | 343 | 2.6 | 5.2 | 0.00 | 0.00 | 0.00 | 66 | 1022.5 |
| 20260902163631 | 86 | 343 | 1.7 | 5.2 | 0.00 | 0.00 | 0.00 | 67 | 1022.6 |
| 20260902163532 | 86 | 334 | 1.7 | 5.2 | 0.00 | 0.00 | 0.00 | 67 | 1022.6 |
| 20260902163431 | 86 | 334 | 1.7 | 5.2 | 0.00 | 0.00 | 0.00 | 67 | 1022.6 |
| 20260902163331 | 86 | 332 | 1.7 | 5.2 | 0.00 | 0.00 | 0.00 | 65 | 1022.7 |
| 20260902163227 | 86 | 303 | 1.7 | 5.2 | 0.00 | 0.00 | 0.00 | 63 | 1022.7 |
| 20260902163127 | 86 | 314 | 1.7 | 5.2 | 0.00 | 0.00 | 0.00 | 64 | 1022.7 |
| 20260902163025 | 86 | 313 | 1.7 | 5.2 | 0.00 | 0.00 | 0.00 | 67 | 1022.7 |
| 20260902162923 | 86 | 327 | 1.7 | 4.3 | 0.00 | 0.00 | 0.00 | 65 | 1022.7 |
| 20260902162823 | 86 | 325 | 1.7 | 4.3 | 0.00 | 0.00 | 0.00 | 65 | 1022.7 |
| 20260902162724 | 86 | 325 | 1.7 | 4.3 | 0.00 | 0.00 | 0.00 | 62 | 1022.7 |
| 20260902162624 | 86 | 325 | 1.7 | 4.3 | 0.00 | 0.00 | 0.00 | 64 | 1022.9 |
| 20260902162523 | 86 | 325 | 1.7 | 4.3 | 0.00 | 0.00 | 0.00 | 63 | 1022.9 |
| 20260902162423 | 86 | 327 | 1.7 | 4.3 | 0.00 | 0.00 | 0.00 | 63 | 1022.8 |
| 20260902162324 | 86 | 327 | 0.9 | 4.3 | 0.00 | 0.00 | 0.00 | 64 | 1022.9 |
| 20260902162222 | 86 | 302 | 0.9 | 4.3 | 0.00 | 0.00 | 0.00 | 67 | 1022.9 |
| 20260902162118 | 86 | 301 | 0.9 | 4.3 | 0.00 | 0.00 | 0.00 | 66 | 1022.9 |
| 20260902162016 | 86 | 311 | 0.9 | 4.3 | 0.00 | 0.00 | 0.00 | 69 | 1022.8 |
| 20260902161917 | 86 | 5 | 0.0 | 4.3 | 0.00 | 0.00 | 0.00 | 67 | 1022.9 |
| 20260902161817 | 86 | 313 | 0.0 | 2.6 | 0.00 | 0.00 | 0.00 | 67 | 1022.8 |
| 20260902161715 | 86 | 42 | 0.0 | 2.6 | 0.00 | 0.00 | 0.00 | 66 | 1022.9 |
| 20260902161607 | 86 | 43 | 0.0 | 1.7 | 0.00 | 0.00 | 0.00 | 63 | 1022.9 |
| 20260902161508 | 85 | 43 | 0.0 | 1.7 | 0.00 | 0.00 | 0.00 | 64 | 1022.9 |
| 20260902161409 | 85 | 43 | 0.0 | 1.7 | 0.00 | 0.00 | 0.00 | 63 | 1022.9 |
| 20260902161308 | 85 | 43 | 0.0 | 1.7 | 0.00 | 0.00 | 0.00 | 67 | 1022.9 |
| 20260902161208 | 85 | 43 | 0.0 | 1.7 | 0.00 | 0.00 | 0.00 | 64 | 1022.9 |
| 20260902161105 | 85 | 43 | 0.0 | 1.7 | 0.00 | 0.00 | 0.00 | 63 | 1022.9 |
| 20260902161005 | 85 | 43 | 0.0 | 1.7 | 0.00 | 0.00 | 0.00 | 63 | 1022.9 |
| 20260902160905 | 85 | 44 | 0.0 | 1.7 | 0.00 | 0.00 | 0.00 | 63 | 1022.9 |
| 20260902160805 | 85 | 43 | 0.0 | 1.7 | 0.00 | 0.00 | 0.00 | 63 | 1022.9 |
| 20260902160706 | 86 | 42 | 0.0 | 0.0 | 0.00 | 0.00 | 0.00 | 66 | 1022.9 |
| 20260902160605 | 85 | 39 | 0.0 | 0.0 | 0.00 | 0.00 | 0.00 | 65 | 1022.9 |
| 20260902160505 | 86 | 345 | 0.0 | 0.0 | 0.00 | 0.00 | 0.00 | 66 | 1022.9 |
| 20260902160406 | 85 | 346 | 0.0 | 0.0 | 0.00 | 0.00 | 0.00 | 63 | 1023.0 |
| 20260902160305 | 85 | 346 | 0.0 | 0.0 | 0.00 | 0.00 | 0.00 | 64 | 1023.0 |
| 20260902160205 | 85 | 346 | 0.0 | 0.0 | 0.00 | 0.00 | 0.00 | 65 | 1022.9 |
| 20260902160104 | 85 | 346 | 0.0 | 0.0 | 0.00 | 0.00 | 0.00 | 64 | 1022.9 |
| 20260902160007 | 85 | 347 | 0.0 | 0.0 | 0.00 | 0.00 | 0.00 | 64 | 1022.9 |
| 20260902155859 | 85 | 30 | 0.0 | 0.0 | 0.00 | 0.00 | 0.00 | 64 | 1022.9 |
| 20260902155801 | 85 | 17 | 0.0 | 0.0 | 0.00 | 0.00 | 0.00 | 62 | 1022.9 |
| 20260902155658 | 85 | 17 | 0.0 | 0.9 | 0.00 | 0.00 | 0.00 | 63 | 1022.9 |
| 20260902155558 | 85 | 17 | 0.0 | 0.9 | 0.00 | 0.00 | 0.00 | 65 | 1022.9 |
| 20260902155456 | 85 | 9 | 0.0 | 1.7 | 0.00 | 0.00 | 0.00 | 64 | 1022.9 |
| 20260902155357 | 85 | 5 | 0.0 | 1.7 | 0.00 | 0.00 | 0.00 | 66 | 1022.8 |
| 20260902155253 | 85 | 348 | 0.0 | 1.7 | 0.00 | 0.00 | 0.00 | 67 | 1022.9 |
| 20260902155153 | 85 | 0 | 0.0 | 1.7 | 0.00 | 0.00 | 0.00 | 66 | 1022.9 |
| 20260902155055 | 85 | 0 | 0.0 | 1.7 | 0.00 | 0.00 | 0.00 | 67 | 1022.8 |
| 20260902154952 | 85 | 0 | 0.0 | 1.7 | 0.00 | 0.00 | 0.00 | 64 | 1022.8 |
| 20260902154847 | 85 | 355 | 0.0 | 1.7 | 0.00 | 0.00 | 0.00 | 66 | 1022.9 |
| 20260902154745 | 85 | 355 | 0.0 | 1.7 | 0.00 | 0.00 | 0.00 | 67 | 1022.9 |
| 20260902154645 | 85 | 50 | 0.0 | 1.7 | 0.00 | 0.00 | 0.00 | 66 | 1022.9 |
| 20260902154545 | 85 | 50 | 0.0 | 1.7 | 0.00 | 0.00 | 0.00 | 68 | 1022.9 |
| 20260902154445 | 85 | 53 | 0.0 | 1.7 | 0.00 | 0.00 | 0.00 | 66 | 1022.8 |
| 20260902154344 | 85 | 49 | 0.0 | 0.0 | 0.00 | 0.00 | 0.00 | 69 | 1022.8 |
| 20260902154241 | 85 | 12 | 0.0 | 0.0 | 0.00 | 0.00 | 0.00 | 68 | 1022.9 |
| 20260902154142 | 85 | 5 | 0.0 | 0.0 | 0.00 | 0.00 | 0.00 | 70 | 1022.9 |
| 20260902154040 | 85 | 340 | 0.0 | 0.0 | 0.00 | 0.00 | 0.00 | 69 | 1022.9 |
| 20260902153937 | 85 | 339 | 0.0 | 0.0 | 0.00 | 0.00 | 0.00 | 70 | 1022.9 |
| 20260902153834 | 85 | 325 | 0.0 | 0.0 | 0.00 | 0.00 | 0.00 | 68 | 1022.8 |
| 20260902153733 | 85 | 322 | 0.0 | 0.0 | 0.00 | 0.00 | 0.00 | 70 | 1022.9 |
| 20260902153629 | 85 | 340 | 0.0 | 0.0 | 0.00 | 0.00 | 0.00 | 69 | 1022.9 |
| 20260902153530 | 85 | 344 | 0.0 | 0.0 | 0.00 | 0.00 | 0.00 | 70 | 1022.8 |
| 20260902153427 | 85 | 346 | 0.0 | 0.0 | 0.00 | 0.00 | 0.00 | 68 | 1022.9 |
| 20260902153327 | 85 | 329 | 0.0 | 0.0 | 0.00 | 0.00 | 0.00 | 70 | 1022.8 |
| 20260902153227 | 85 | 23 | 0.0 | 0.0 | 0.00 | 0.00 | 0.00 | 69 | 1022.9 |
| 20260902153127 | 85 | 19 | 0.0 | 0.0 | 0.00 | 0.00 | 0.00 | 69 | 1022.9 |
| 20260902153027 | 85 | 19 | 0.0 | 0.0 | 0.00 | 0.00 | 0.00 | 68 | 1022.9 |
| 20260902152929 | 85 | 19 | 0.0 | 0.0 | 0.00 | 0.00 | 0.00 | 69 | 1022.9 |
| 20260902152828 | 85 | 5 | 0.0 | 0.0 | 0.00 | 0.00 | 0.00 | 70 | 1022.9 |
| 20260902152726 | 85 | 9 | 0.0 | 0.0 | 0.00 | 0.00 | 0.00 | 70 | 1022.9 |
| 20260902152627 | 85 | 328 | 0.0 | 0.0 | 0.00 | 0.00 | 0.00 | 69 | 1022.9 |
| 20260902152525 | 85 | 328 | 0.0 | 0.0 | 0.00 | 0.00 | 0.00 | 69 | 1022.9 |
| 20260902152426 | 85 | 328 | 0.0 | 0.0 | 0.00 | 0.00 | 0.00 | 70 | 1022.9 |
| 20260902152324 | 85 | 328 | 0.0 | 0.0 | 0.00 | 0.00 | 0.00 | 72 | 1022.9 |
| 20260902152221 | 85 | 328 | 0.0 | 0.0 | 0.00 | 0.00 | 0.00 | 70 | 1022.9 |
| 20260902152122 | 85 | 329 | 0.0 | 0.0 | 0.00 | 0.00 | 0.00 | 71 | 1022.8 |
| 20260902152021 | 85 | 335 | 0.0 | 0.0 | 0.00 | 0.00 | 0.00 | 72 | 1022.8 |
| 20260902151922 | 85 | 338 | 0.0 | 0.0 | 0.00 | 0.00 | 0.00 | 71 | 1022.8 |
| 20260902151821 | 85 | 338 | 0.0 | 0.0 | 0.00 | 0.00 | 0.00 | 71 | 1022.8 |
| 20260902151722 | 85 | 340 | 0.0 | 0.0 | 0.00 | 0.00 | 0.00 | 71 | 1022.7 |
| 20260902151618 | 85 | 355 | 0.0 | 0.0 | 0.00 | 0.00 | 0.00 | 69 | 1022.7 |
| 20260902151518 | 85 | 355 | 0.0 | 0.0 | 0.00 | 0.00 | 0.00 | 70 | 1022.8 |
| 20260902151417 | 85 | 355 | 0.0 | 0.0 | 0.00 | 0.00 | 0.00 | 69 | 1022.8 |
| 20260902151317 | 85 | 0 | 0.0 | 0.0 | 0.00 | 0.00 | 0.00 | 69 | 1022.8 |
| 20260902151215 | 85 | 355 | 0.0 | 0.0 | 0.00 | 0.00 | 0.00 | 70 | 1022.7 |
| 20260902151108 | 85 | 355 | 0.0 | 0.0 | 0.00 | 0.00 | 0.00 | 69 | 1022.7 |
| 20260902151007 | 85 | 355 | 0.0 | 0.0 | 0.00 | 0.00 | 0.00 | 70 | 1022.7 |
| 20260902150908 | 85 | 355 | 0.0 | 0.0 | 0.00 | 0.00 | 0.00 | 72 | 1022.7 |
| 20260902150809 | 84 | 340 | 0.0 | 0.0 | 0.00 | 0.00 | 0.00 | 68 | 1022.7 |
| 20260902150708 | 85 | 341 | 0.0 | 0.0 | 0.00 | 0.00 | 0.00 | 67 | 1022.7 |
| 20260902150559 | 85 | 340 | 0.0 | 0.0 | 0.00 | 0.00 | 0.00 | 67 | 1022.8 |
| 20260902150459 | 85 | 344 | 0.0 | 0.0 | 0.00 | 0.00 | 0.00 | 67 | 1022.8 |
| 20260902150401 | 85 | 25 | 0.0 | 0.0 | 0.00 | 0.00 | 0.00 | 67 | 1022.9 |
| 20260902150300 | 85 | 25 | 0.0 | 0.0 | 0.00 | 0.00 | 0.00 | 69 | 1022.8 |
| 20260902150157 | 85 | 26 | 0.0 | 0.0 | 0.00 | 0.00 | 0.00 | 69 | 1022.8 |
| 20260902150053 | 85 | 28 | 0.0 | 0.0 | 0.00 | 0.00 | 0.00 | 69 | 1022.8 |
| 20260902145952 | 85 | 21 | 0.0 | 0.0 | 0.00 | 0.00 | 0.00 | 67 | 1022.8 |
| 20260902145853 | 85 | 22 | 0.0 | 0.0 | 0.00 | 0.00 | 0.00 | 68 | 1022.8 |
| 20260902145754 | 85 | 313 | 0.0 | 0.0 | 0.00 | 0.00 | 0.00 | 68 | 1022.8 |
| 20260902145652 | 85 | 355 | 0.0 | 0.0 | 0.00 | 0.00 | 0.00 | 69 | 1022.8 |
| 20260902145552 | 85 | 18 | 0.0 | 0.0 | 0.00 | 0.00 | 0.00 | 69 | 1022.8 |
| 20260902145450 | 85 | 13 | 0.0 | 0.0 | 0.00 | 0.00 | 0.00 | 68 | 1022.8 |
| 20260902145348 | 85 | 13 | 0.0 | 0.0 | 0.00 | 0.00 | 0.00 | 71 | 1022.7 |
| 20260902145249 | 85 | 13 | 0.0 | 0.0 | 0.00 | 0.00 | 0.00 | 70 | 1022.8 |
| 20260902145145 | 85 | 12 | 0.0 | 0.0 | 0.00 | 0.00 | 0.00 | 72 | 1022.8 |
| 20260902145042 | 85 | 340 | 0.0 | 0.0 | 0.00 | 0.00 | 0.00 | 68 | 1022.8 |
| 20260902144940 | 85 | 331 | 0.0 | 0.0 | 0.00 | 0.00 | 0.00 | 67 | 1022.8 |
| 20260902144838 | 85 | 331 | 0.0 | 0.0 | 0.00 | 0.00 | 0.00 | 68 | 1022.7 |
| 20260902144739 | 85 | 331 | 0.0 | 0.0 | 0.00 | 0.00 | 0.00 | 69 | 1022.7 |
| 20260902144635 | 85 | 0 | 0.0 | 0.0 | 0.00 | 0.00 | 0.00 | 70 | 1022.7 |
| 20260902144529 | 85 | 355 | 0.0 | 0.0 | 0.00 | 0.00 | 0.00 | 68 | 1022.7 |
| 20260902144429 | 85 | 355 | 0.0 | 0.0 | 0.00 | 0.00 | 0.00 | 68 | 1022.7 |
| 20260902144329 | 85 | 5 | 0.0 | 0.0 | 0.00 | 0.00 | 0.00 | 72 | 1022.7 |
| 20260902144229 | 85 | 13 | 0.0 | 0.0 | 0.00 | 0.00 | 0.00 | 72 | 1022.7 |
| 20260902144127 | 85 | 13 | 0.0 | 0.0 | 0.00 | 0.00 | 0.00 | 73 | 1022.6 |
| 20260902144024 | 85 | 10 | 0.0 | 0.0 | 0.00 | 0.00 | 0.00 | 72 | 1022.6 |
| 20260902143923 | 85 | 10 | 0.0 | 0.0 | 0.00 | 0.00 | 0.00 | 72 | 1022.7 |
| 20260902143821 | 84 | 10 | 0.0 | 0.0 | 0.00 | 0.00 | 0.00 | 70 | 1022.6 |
| 20260902143721 | 84 | 9 | 0.0 | 0.0 | 0.00 | 0.00 | 0.00 | 71 | 1022.6 |
| 20260902143620 | 84 | 9 | 0.0 | 0.0 | 0.00 | 0.00 | 0.00 | 69 | 1022.6 |
| 20260902143511 | 84 | 9 | 0.0 | 0.0 | 0.00 | 0.00 | 0.00 | 75 | 1022.6 |
| 20260902143409 | 84 | 9 | 0.0 | 0.0 | 0.00 | 0.00 | 0.00 | 73 | 1022.6 |
| 20260902143311 | 84 | 9 | 0.0 | 0.0 | 0.00 | 0.00 | 0.00 | 75 | 1022.5 |
| 20260902143210 | 84 | 9 | 0.0 | 0.0 | 0.00 | 0.00 | 0.00 | 74 | 1022.5 |
| 20260902143110 | 84 | 9 | 0.0 | 0.0 | 0.00 | 0.00 | 0.00 | 76 | 1022.5 |
| 20260902143005 | 84 | 9 | 0.0 | 0.0 | 0.00 | 0.00 | 0.00 | 74 | 1022.6 |
| 20260902142904 | 84 | 9 | 0.0 | 0.0 | 0.00 | 0.00 | 0.00 | 73 | 1022.6 |
| 20260902142804 | 84 | 9 | 0.0 | 0.0 | 0.00 | 0.00 | 0.00 | 75 | 1022.6 |
| 20260902142705 | 84 | 14 | 0.0 | 0.0 | 0.00 | 0.00 | 0.00 | 75 | 1022.6 |
| 20260902142605 | 84 | 340 | 0.0 | 0.0 | 0.00 | 0.00 | 0.00 | 75 | 1022.6 |
| 20260902142500 | 84 | 340 | 0.0 | 0.0 | 0.00 | 0.00 | 0.00 | 73 | 1022.6 |
| 20260902142358 | 83 | 339 | 0.0 | 0.0 | 0.00 | 0.00 | 0.00 | 73 | 1022.5 |
| 20260902142257 | 83 | 339 | 0.0 | 0.0 | 0.00 | 0.00 | 0.00 | 73 | 1022.5 |
| 20260902142157 | 83 | 349 | 0.0 | 0.0 | 0.00 | 0.00 | 0.00 | 74 | 1022.5 |
| 20260902142058 | 83 | 349 | 0.0 | 0.0 | 0.00 | 0.00 | 0.00 | 75 | 1022.6 |
| 20260902141955 | 83 | 349 | 0.0 | 0.9 | 0.00 | 0.00 | 0.00 | 73 | 1022.6 |
| 20260902141851 | 83 | 350 | 0.0 | 0.9 | 0.00 | 0.00 | 0.00 | 73 | 1022.5 |
| 20260902141751 | 83 | 350 | 0.0 | 0.9 | 0.00 | 0.00 | 0.00 | 73 | 1022.6 |
| 20260902141650 | 83 | 350 | 0.0 | 0.9 | 0.00 | 0.00 | 0.00 | 74 | 1022.5 |
| 20260902141549 | 83 | 350 | 0.0 | 2.6 | 0.00 | 0.00 | 0.00 | 74 | 1022.5 |
| 20260902141444 | 83 | 351 | 0.0 | 2.6 | 0.00 | 0.00 | 0.00 | 73 | 1022.5 |
| 20260902141343 | 83 | 350 | 0.0 | 2.6 | 0.00 | 0.00 | 0.00 | 72 | 1022.6 |
| 20260902141244 | 83 | 351 | 0.0 | 2.6 | 0.00 | 0.00 | 0.00 | 73 | 1022.5 |
| 20260902141142 | 83 | 350 | 0.0 | 2.6 | 0.00 | 0.00 | 0.00 | 72 | 1022.5 |
| 20260902141039 | 83 | 350 | 0.0 | 2.6 | 0.00 | 0.00 | 0.00 | 73 | 1022.6 |
| 20260902140937 | 83 | 332 | 0.0 | 2.6 | 0.00 | 0.00 | 0.00 | 75 | 1022.5 |
| 20260902140837 | 83 | 330 | 0.0 | 2.6 | 0.00 | 0.00 | 0.00 | 74 | 1022.4 |
| 20260902140736 | 83 | 329 | 0.0 | 2.6 | 0.00 | 0.00 | 0.00 | 71 | 1022.5 |
| 20260902140636 | 83 | 328 | 0.0 | 2.6 | 0.00 | 0.00 | 0.00 | 72 | 1022.5 |
| 20260902140533 | 83 | 329 | 0.0 | 1.7 | 0.00 | 0.00 | 0.00 | 74 | 1022.4 |
| 20260902140427 | 83 | 329 | 0.0 | 1.7 | 0.00 | 0.00 | 0.00 | 73 | 1022.5 |
| 20260902140328 | 83 | 326 | 0.0 | 1.7 | 0.00 | 0.00 | 0.00 | 74 | 1022.5 |
| 20260902140227 | 83 | 325 | 0.0 | 1.7 | 0.00 | 0.00 | 0.00 | 73 | 1022.5 |
| 20260902140127 | 83 | 325 | 0.0 | 1.7 | 0.00 | 0.00 | 0.00 | 73 | 1022.5 |
| 20260902140024 | 83 | 325 | 0.0 | 1.7 | 0.00 | 0.00 | 0.00 | 72 | 1022.5 |
| 20260902135920 | 83 | 321 | 0.0 | 1.7 | 0.00 | 0.00 | 0.00 | 72 | 1022.6 |
| 20260902135817 | 83 | 321 | 0.0 | 1.7 | 0.00 | 0.00 | 0.00 | 73 | 1022.5 |
| 20260902135717 | 83 | 333 | 0.0 | 0.9 | 0.00 | 0.00 | 0.00 | 71 | 1022.5 |
| 20260902135618 | 83 | 331 | 0.0 | 0.9 | 0.00 | 0.00 | 0.00 | 74 | 1022.5 |
| 20260902135517 | 83 | 339 | 0.0 | 0.9 | 0.00 | 0.00 | 0.00 | 74 | 1022.5 |
| 20260902135418 | 83 | 335 | 0.0 | 0.9 | 0.00 | 0.00 | 0.00 | 74 | 1022.5 |
| 20260902135315 | 83 | 333 | 0.0 | 0.9 | 0.00 | 0.00 | 0.00 | 74 | 1022.5 |
| 20260902135215 | 83 | 333 | 0.0 | 0.9 | 0.00 | 0.00 | 0.00 | 75 | 1022.5 |
| 20260902135113 | 83 | 333 | 0.0 | 0.9 | 0.00 | 0.00 | 0.00 | 77 | 1022.5 |
| 20260902135012 | 83 | 333 | 0.0 | 0.9 | 0.00 | 0.00 | 0.00 | 75 | 1022.5 |
| 20260902134905 | 83 | 331 | 0.0 | 0.9 | 0.00 | 0.00 | 0.00 | 75 | 1022.5 |
| 20260902134801 | 82 | 330 | 0.0 | 0.9 | 0.00 | 0.00 | 0.00 | 73 | 1022.6 |
| 20260902134701 | 82 | 330 | 0.0 | 0.9 | 0.00 | 0.00 | 0.00 | 76 | 1022.5 |
| 20260902134602 | 82 | 333 | 0.0 | 0.0 | 0.00 | 0.00 | 0.00 | 76 | 1022.5 |
| 20260902134502 | 82 | 333 | 0.0 | 0.0 | 0.00 | 0.00 | 0.00 | 76 | 1022.5 |
| 20260902134400 | 82 | 332 | 0.0 | 0.0 | 0.00 | 0.00 | 0.00 | 76 | 1022.5 |
| 20260902134259 | 82 | 332 | 0.0 | 0.0 | 0.00 | 0.00 | 0.00 | 77 | 1022.5 |
| 20260902134159 | 82 | 332 | 0.0 | 0.0 | 0.00 | 0.00 | 0.00 | 77 | 1022.5 |
| 20260902134058 | 82 | 331 | 0.0 | 0.0 | 0.00 | 0.00 | 0.00 | 77 | 1022.5 |
| 20260902133956 | 82 | 331 | 0.0 | 0.0 | 0.00 | 0.00 | 0.00 | 75 | 1022.5 |
| 20260902133853 | 82 | 331 | 0.0 | 0.0 | 0.00 | 0.00 | 0.00 | 77 | 1022.5 |
| 20260902133754 | 82 | 331 | 0.0 | 0.0 | 0.00 | 0.00 | 0.00 | 76 | 1022.4 |
| 20260902133651 | 82 | 331 | 0.0 | 0.0 | 0.00 | 0.00 | 0.00 | 76 | 1022.4 |
| 20260902133553 | 82 | 330 | 0.0 | 0.0 | 0.00 | 0.00 | 0.00 | 77 | 1022.5 |
| 20260902133450 | 81 | 329 | 0.0 | 0.0 | 0.00 | 0.00 | 0.00 | 76 | 1022.5 |
| 20260902133343 | 81 | 319 | 0.0 | 0.0 | 0.00 | 0.00 | 0.00 | 77 | 1022.5 |
| 20260902133245 | 81 | 321 | 0.0 | 0.0 | 0.00 | 0.00 | 0.00 | 77 | 1022.5 |
| 20260902133144 | 81 | 321 | 0.0 | 0.0 | 0.00 | 0.00 | 0.00 | 76 | 1022.5 |
| 20260902133042 | 81 | 320 | 0.0 | 0.0 | 0.00 | 0.00 | 0.00 | 78 | 1022.5 |
| 20260902132939 | 81 | 304 | 0.0 | 0.0 | 0.00 | 0.00 | 0.00 | 76 | 1022.4 |
| 20260902132839 | 81 | 304 | 0.0 | 0.0 | 0.00 | 0.00 | 0.00 | 76 | 1022.5 |
| 20260902132738 | 81 | 304 | 0.0 | 0.0 | 0.00 | 0.00 | 0.00 | 77 | 1022.4 |
| 20260902132638 | 81 | 304 | 0.0 | 0.0 | 0.00 | 0.00 | 0.00 | 78 | 1022.4 |
| 20260902132535 | 81 | 303 | 0.0 | 0.0 | 0.00 | 0.00 | 0.00 | 77 | 1022.5 |
| 20260902132434 | 81 | 303 | 0.0 | 0.0 | 0.00 | 0.00 | 0.00 | 76 | 1022.5 |
| 20260902132333 | 81 | 303 | 0.0 | 0.0 | 0.00 | 0.00 | 0.00 | 77 | 1022.5 |
| 20260902132232 | 81 | 302 | 0.0 | 0.0 | 0.00 | 0.00 | 0.00 | 76 | 1022.5 |
| 20260902132128 | 81 | 303 | 0.0 | 0.0 | 0.00 | 0.00 | 0.00 | 76 | 1022.5 |
| 20260902132030 | 80 | 303 | 0.0 | 0.0 | 0.00 | 0.00 | 0.00 | 76 | 1022.5 |
| 20260902131928 | 80 | 304 | 0.0 | 0.0 | 0.00 | 0.00 | 0.00 | 77 | 1022.5 |
| 20260902131822 | 80 | 303 | 0.0 | 0.0 | 0.00 | 0.00 | 0.00 | 79 | 1022.5 |
| 20260902131722 | 80 | 304 | 0.0 | 0.0 | 0.00 | 0.00 | 0.00 | 79 | 1022.5 |
| 20260902131621 | 80 | 303 | 0.0 | 0.0 | 0.00 | 0.00 | 0.00 | 78 | 1022.5 |
| 20260902131520 | 80 | 302 | 0.0 | 0.0 | 0.00 | 0.00 | 0.00 | 79 | 1022.5 |
| 20260902131418 | 80 | 302 | 0.0 | 0.0 | 0.00 | 0.00 | 0.00 | 77 | 1022.5 |
| 20260902131314 | 80 | 302 | 0.0 | 0.0 | 0.00 | 0.00 | 0.00 | 78 | 1022.5 |
| 20260902131217 | 80 | 302 | 0.0 | 0.0 | 0.00 | 0.00 | 0.00 | 78 | 1022.5 |
| 20260902131115 | 80 | 302 | 0.0 | 0.0 | 0.00 | 0.00 | 0.00 | 78 | 1022.5 |
| 20260902131015 | 80 | 303 | 0.0 | 2.6 | 0.00 | 0.00 | 0.00 | 77 | 1022.5 |
| 20260902130912 | 80 | 305 | 0.9 | 3.5 | 0.00 | 0.00 | 0.00 | 78 | 1022.5 |
| 20260902130808 | 80 | 305 | 0.9 | 3.5 | 0.00 | 0.00 | 0.00 | 77 | 1022.5 |
| 20260902130706 | 80 | 309 | 0.9 | 3.5 | 0.00 | 0.00 | 0.00 | 77 | 1022.5 |
| 20260902130606 | 80 | 308 | 0.9 | 3.5 | 0.00 | 0.00 | 0.00 | 78 | 1022.5 |
| 20260902130505 | 80 | 309 | 0.9 | 3.5 | 0.00 | 0.00 | 0.00 | 78 | 1022.5 |
| 20260902130406 | 80 | 309 | 1.7 | 3.5 | 0.00 | 0.00 | 0.00 | 79 | 1022.5 |
| 20260902130256 | 80 | 309 | 1.7 | 3.5 | 0.00 | 0.00 | 0.00 | 79 | 1022.5 |
| 20260902130155 | 79 | 309 | 1.7 | 3.5 | 0.00 | 0.00 | 0.00 | 79 | 1022.5 |
| 20260902130057 | 79 | 302 | 1.7 | 3.5 | 0.00 | 0.00 | 0.00 | 79 | 1022.5 |
| 20260902125955 | 79 | 344 | 1.7 | 3.5 | 0.00 | 0.00 | 0.00 | 78 | 1022.5 |
| 20260902125856 | 79 | 344 | 1.7 | 2.6 | 0.00 | 0.00 | 0.00 | 80 | 1022.5 |
| 20260902125755 | 79 | 344 | 1.7 | 3.5 | 0.00 | 0.00 | 0.00 | 79 | 1022.5 |
| 20260902125654 | 79 | 350 | 1.7 | 3.5 | 0.00 | 0.00 | 0.00 | 79 | 1022.6 |
| 20260902125552 | 79 | 350 | 1.7 | 3.5 | 0.00 | 0.00 | 0.00 | 79 | 1022.6 |
| 20260902125451 | 79 | 350 | 1.7 | 3.5 | 0.00 | 0.00 | 0.00 | 78 | 1022.5 |
| 20260902125350 | 79 | 350 | 1.7 | 3.5 | 0.00 | 0.00 | 0.00 | 79 | 1022.6 |
| 20260902125246 | 79 | 346 | 1.7 | 3.5 | 0.00 | 0.00 | 0.00 | 79 | 1022.6 |
| 20260902125144 | 79 | 63 | 1.7 | 3.5 | 0.00 | 0.00 | 0.00 | 79 | 1022.5 |
| 20260902125045 | 79 | 227 | 1.7 | 3.5 | 0.00 | 0.00 | 0.00 | 79 | 1022.6 |
| 20260902124945 | 79 | 226 | 1.7 | 3.5 | 0.00 | 0.00 | 0.00 | 80 | 1022.5 |
| 20260902124844 | 79 | 225 | 1.7 | 2.6 | 0.00 | 0.00 | 0.00 | 79 | 1022.6 |
| 20260902124736 | 79 | 226 | 1.7 | 2.6 | 0.00 | 0.00 | 0.00 | 80 | 1022.6 |
| 20260902124633 | 79 | 226 | 1.7 | 2.6 | 0.00 | 0.00 | 0.00 | 80 | 1022.6 |
| 20260902124535 | 79 | 226 | 1.7 | 2.6 | 0.00 | 0.00 | 0.00 | 80 | 1022.6 |
| 20260902124432 | 79 | 225 | 1.7 | 2.6 | 0.00 | 0.00 | 0.00 | 81 | 1022.6 |
| 20260902124333 | 78 | 225 | 1.7 | 2.6 | 0.00 | 0.00 | 0.00 | 80 | 1022.6 |
| 20260902124230 | 78 | 225 | 1.7 | 2.6 | 0.00 | 0.00 | 0.00 | 79 | 1022.7 |
| 20260902124128 | 78 | 225 | 1.7 | 2.6 | 0.00 | 0.00 | 0.00 | 80 | 1022.6 |
| 20260902124026 | 78 | 225 | 1.7 | 2.6 | 0.00 | 0.00 | 0.00 | 80 | 1022.6 |
| 20260902123927 | 78 | 220 | 1.7 | 3.5 | 0.00 | 0.00 | 0.00 | 80 | 1022.6 |
| 20260902123827 | 78 | 261 | 1.7 | 3.5 | 0.00 | 0.00 | 0.00 | 79 | 1022.5 |
| 20260902123725 | 78 | 261 | 1.7 | 3.5 | 0.00 | 0.00 | 0.00 | 80 | 1022.6 |
| 20260902123627 | 78 | 11 | 1.7 | 3.5 | 0.00 | 0.00 | 0.00 | 80 | 1022.6 |
| 20260902123523 | 78 | 11 | 1.7 | 3.5 | 0.00 | 0.00 | 0.00 | 79 | 1022.6 |
| 20260902123424 | 78 | 11 | 1.7 | 3.5 | 0.00 | 0.00 | 0.00 | 79 | 1022.6 |
| 20260902123322 | 78 | 11 | 1.7 | 3.5 | 0.00 | 0.00 | 0.00 | 79 | 1022.6 |
| 20260902123214 | 78 | 12 | 1.7 | 3.5 | 0.00 | 0.00 | 0.00 | 79 | 1022.6 |
| 20260902123111 | 78 | 12 | 1.7 | 3.5 | 0.00 | 0.00 | 0.00 | 79 | 1022.5 |
| 20260902123012 | 78 | 13 | 1.7 | 3.5 | 0.00 | 0.00 | 0.00 | 79 | 1022.6 |
| 20260902122911 | 78 | 13 | 1.7 | 2.6 | 0.00 | 0.00 | 0.00 | 80 | 1022.5 |
| 20260902122812 | 78 | 14 | 1.7 | 3.5 | 0.00 | 0.00 | 0.00 | 79 | 1022.6 |
| 20260902122707 | 78 | 14 | 1.7 | 3.5 | 0.00 | 0.00 | 0.00 | 80 | 1022.6 |
| 20260902122607 | 78 | 14 | 1.7 | 3.5 | 0.00 | 0.00 | 0.00 | 80 | 1022.6 |
| 20260902122507 | 78 | 16 | 1.7 | 3.5 | 0.00 | 0.00 | 0.00 | 80 | 1022.4 |
| 20260902122407 | 78 | 38 | 1.7 | 3.5 | 0.00 | 0.00 | 0.00 | 79 | 1022.5 |
| 20260902122306 | 78 | 296 | 1.7 | 3.5 | 0.00 | 0.00 | 0.00 | 79 | 1022.5 |
| 20260902122202 | 78 | 331 | 1.7 | 3.5 | 0.00 | 0.00 | 0.00 | 80 | 1022.4 |
| 20260902122059 | 78 | 284 | 1.7 | 3.5 | 0.00 | 0.00 | 0.00 | 79 | 1022.5 |
| 20260902122000 | 78 | 284 | 1.7 | 3.5 | 0.00 | 0.00 | 0.00 | 80 | 1022.4 |
| 20260902121900 | 78 | 284 | 2.6 | 3.5 | 0.00 | 0.00 | 0.00 | 80 | 1022.4 |
| 20260902121759 | 78 | 277 | 2.6 | 3.5 | 0.00 | 0.00 | 0.00 | 80 | 1022.4 |
| 20260902121651 | 78 | 277 | 2.6 | 3.5 | 0.00 | 0.00 | 0.00 | 79 | 1022.4 |
| 20260902121551 | 78 | 277 | 1.7 | 3.5 | 0.00 | 0.00 | 0.00 | 79 | 1022.3 |
| 20260902121453 | 78 | 296 | 1.7 | 3.5 | 0.00 | 0.00 | 0.00 | 80 | 1022.4 |
| 20260902121352 | 78 | 303 | 1.7 | 3.5 | 0.00 | 0.00 | 0.00 | 80 | 1022.4 |
| 20260902121249 | 78 | 300 | 1.7 | 3.5 | 0.00 | 0.00 | 0.00 | 79 | 1022.4 |
| 20260902121149 | 78 | 298 | 0.9 | 3.5 | 0.00 | 0.00 | 0.00 | 81 | 1022.3 |
| 20260902121048 | 78 | 300 | 0.9 | 3.5 | 0.00 | 0.00 | 0.00 | 80 | 1022.3 |
| 20260902120945 | 78 | 302 | 0.9 | 3.5 | 0.00 | 0.00 | 0.00 | 80 | 1022.4 |
| 20260902120845 | 77 | 309 | 0.0 | 3.5 | 0.00 | 0.00 | 0.00 | 81 | 1022.4 |
| 20260902120744 | 77 | 311 | 0.0 | 3.5 | 0.00 | 0.00 | 0.00 | 80 | 1022.4 |
| 20260902120644 | 77 | 275 | 0.0 | 2.6 | 0.00 | 0.00 | 0.00 | 81 | 1022.3 |
| 20260902120540 | 77 | 275 | 0.0 | 0.0 | 0.00 | 0.00 | 0.00 | 80 | 1022.3 |
| 20260902120441 | 77 | 275 | 0.0 | 0.0 | 0.00 | 0.00 | 0.00 | 80 | 1022.4 |
| 20260902120340 | 77 | 273 | 0.0 | 0.0 | 0.00 | 0.00 | 0.00 | 80 | 1022.3 |
| 20260902120238 | 77 | 272 | 0.0 | 0.0 | 0.00 | 0.00 | 0.00 | 80 | 1022.3 |
| 20260902120137 | 77 | 273 | 0.0 | 0.0 | 0.00 | 0.00 | 0.00 | 80 | 1022.3 |
| 20260902120036 | 77 | 269 | 0.0 | 0.0 | 0.00 | 0.00 | 0.00 | 79 | 1022.3 |
| 20260902115936 | 77 | 268 | 0.0 | 0.0 | 0.00 | 0.00 | 0.00 | 79 | 1022.3 |
| 20260902115832 | 77 | 267 | 0.0 | 0.0 | 0.00 | 0.00 | 0.00 | 80 | 1022.3 |
| 20260902115734 | 77 | 267 | 0.0 | 0.0 | 0.00 | 0.00 | 0.00 | 80 | 1022.2 |
| 20260902115631 | 77 | 267 | 0.0 | 0.0 | 0.00 | 0.00 | 0.00 | 79 | 1022.2 |
| 20260902115530 | 77 | 266 | 0.0 | 0.0 | 0.00 | 0.00 | 0.00 | 79 | 1022.2 |
| 20260902115427 | 77 | 267 | 0.0 | 0.0 | 0.00 | 0.00 | 0.00 | 79 | 1022.1 |
| 20260902115328 | 77 | 265 | 0.0 | 0.0 | 0.00 | 0.00 | 0.00 | 80 | 1022.2 |
| 20260902115225 | 77 | 265 | 0.0 | 0.0 | 0.00 | 0.00 | 0.00 | 80 | 1022.1 |
| 20260902115125 | 77 | 265 | 0.0 | 0.0 | 0.00 | 0.00 | 0.00 | 81 | 1022.1 |
| 20260902115022 | 77 | 263 | 0.0 | 0.0 | 0.00 | 0.00 | 0.00 | 80 | 1022.1 |
| 20260902114920 | 77 | 263 | 0.0 | 0.0 | 0.00 | 0.00 | 0.00 | 80 | 1022.1 |
| 20260902114822 | 77 | 263 | 0.0 | 0.0 | 0.00 | 0.00 | 0.00 | 79 | 1022.1 |
| 20260902114722 | 77 | 263 | 0.0 | 0.0 | 0.00 | 0.00 | 0.00 | 79 | 1022.1 |
| 20260902114620 | 77 | 263 | 0.0 | 0.0 | 0.00 | 0.00 | 0.00 | 79 | 1022.1 |
| 20260902114517 | 77 | 263 | 0.0 | 0.0 | 0.00 | 0.00 | 0.00 | 79 | 1022.1 |
| 20260902114417 | 77 | 263 | 0.0 | 0.0 | 0.00 | 0.00 | 0.00 | 78 | 1022.1 |
| 20260902114316 | 77 | 261 | 0.0 | 0.0 | 0.00 | 0.00 | 0.00 | 79 | 1022.1 |
| 20260902114215 | 77 | 261 | 0.0 | 0.0 | 0.00 | 0.00 | 0.00 | 79 | 1022.1 |
| 20260902114112 | 77 | 261 | 0.0 | 0.0 | 0.00 | 0.00 | 0.00 | 78 | 1022.0 |
| 20260902114012 | 77 | 261 | 0.0 | 0.0 | 0.00 | 0.00 | 0.00 | 78 | 1022.0 |
| 20260902113911 | 77 | 261 | 0.0 | 0.0 | 0.00 | 0.00 | 0.00 | 78 | 1022.0 |
| 20260902113810 | 77 | 262 | 0.0 | 0.0 | 0.00 | 0.00 | 0.00 | 78 | 1022.0 |
| 20260902113708 | 77 | 260 | 0.0 | 0.0 | 0.00 | 0.00 | 0.00 | 78 | 1022.0 |
| 20260902113608 | 77 | 261 | 0.0 | 0.0 | 0.00 | 0.00 | 0.00 | 78 | 1022.0 |
| 20260902113508 | 77 | 267 | 0.0 | 0.0 | 0.00 | 0.00 | 0.00 | 78 | 1022.0 |
| 20260902113407 | 77 | 227 | 0.0 | 0.0 | 0.00 | 0.00 | 0.00 | 78 | 1021.9 |
| 20260902113308 | 77 | 225 | 0.0 | 0.0 | 0.00 | 0.00 | 0.00 | 78 | 1021.9 |
| 20260902113206 | 77 | 229 | 0.0 | 0.0 | 0.00 | 0.00 | 0.00 | 78 | 1021.9 |
| 20260902113108 | 77 | 259 | 0.0 | 0.0 | 0.00 | 0.00 | 0.00 | 78 | 1022.0 |
| 20260902113008 | 77 | 265 | 0.0 | 0.0 | 0.00 | 0.00 | 0.00 | 78 | 1021.9 |
| 20260902112901 | 77 | 259 | 0.0 | 0.0 | 0.00 | 0.00 | 0.00 | 78 | 1021.7 |
| 20260902112802 | 77 | 244 | 0.0 | 0.0 | 0.00 | 0.00 | 0.00 | 78 | 1021.9 |
| 20260902112700 | 77 | 250 | 0.0 | 0.0 | 0.00 | 0.00 | 0.00 | 78 | 1021.7 |
| 20260902112601 | 77 | 258 | 0.0 | 0.0 | 0.00 | 0.00 | 0.00 | 78 | 1021.9 |
| 20260902112502 | 77 | 259 | 0.0 | 0.0 | 0.00 | 0.00 | 0.00 | 78 | 1021.9 |
| 20260902112354 | 77 | 258 | 0.0 | 0.0 | 0.00 | 0.00 | 0.00 | 78 | 1021.7 |
| 20260902112255 | 77 | 257 | 0.0 | 0.0 | 0.00 | 0.00 | 0.00 | 77 | 1021.7 |
| 20260902112155 | 77 | 271 | 0.0 | 0.0 | 0.00 | 0.00 | 0.00 | 78 | 1021.9 |
| 20260902112057 | 77 | 266 | 0.0 | 0.0 | 0.00 | 0.00 | 0.00 | 77 | 1021.6 |
| 20260902111956 | 77 | 271 | 0.0 | 0.0 | 0.00 | 0.00 | 0.00 | 78 | 1021.6 |
| 20260902111856 | 77 | 272 | 0.0 | 0.0 | 0.00 | 0.00 | 0.00 | 77 | 1021.7 |
| 20260902111752 | 77 | 273 | 0.0 | 0.0 | 0.00 | 0.00 | 0.00 | 77 | 1021.7 |
| 20260902111653 | 77 | 273 | 0.0 | 0.0 | 0.00 | 0.00 | 0.00 | 77 | 1021.6 |
| 20260902111552 | 77 | 272 | 0.0 | 0.0 | 0.00 | 0.00 | 0.00 | 77 | 1021.6 |
| 20260902111452 | 77 | 272 | 0.0 | 0.0 | 0.00 | 0.00 | 0.00 | 77 | 1021.6 |
| 20260902111351 | 78 | 272 | 0.0 | 0.0 | 0.00 | 0.00 | 0.00 | 77 | 1021.6 |
| 20260902111251 | 78 | 271 | 0.0 | 0.0 | 0.00 | 0.00 | 0.00 | 77 | 1021.6 |
| 20260902111149 | 78 | 281 | 0.0 | 0.0 | 0.00 | 0.00 | 0.00 | 77 | 1021.6 |
| 20260902111050 | 78 | 291 | 0.0 | 0.0 | 0.00 | 0.00 | 0.00 | 77 | 1021.6 |
| 20260902110949 | 78 | 293 | 0.0 | 0.0 | 0.00 | 0.00 | 0.00 | 77 | 1021.6 |
| 20260902110850 | 78 | 293 | 0.0 | 0.0 | 0.00 | 0.00 | 0.00 | 77 | 1021.6 |
| 20260902110749 | 78 | 292 | 0.0 | 0.0 | 0.00 | 0.00 | 0.00 | 77 | 1021.6 |
| 20260902110648 | 78 | 296 | 0.0 | 0.0 | 0.00 | 0.00 | 0.00 | 77 | 1021.6 |
| 20260902110548 | 78 | 296 | 0.0 | 0.0 | 0.00 | 0.00 | 0.00 | 77 | 1021.6 |
| 20260902110448 | 78 | 294 | 0.0 | 0.0 | 0.00 | 0.00 | 0.00 | 77 | 1021.6 |
| 20260902110346 | 78 | 294 | 0.0 | 0.0 | 0.00 | 0.00 | 0.00 | 77 | 1021.7 |
| 20260902110243 | 78 | 294 | 0.0 | 0.0 | 0.00 | 0.00 | 0.00 | 77 | 1021.6 |
| 20260902110143 | 78 | 293 | 0.0 | 0.0 | 0.00 | 0.00 | 0.00 | 77 | 1021.6 |
| 20260902110043 | 78 | 293 | 0.0 | 0.0 | 0.00 | 0.00 | 0.00 | 77 | 1021.7 |
| 20260902105944 | 78 | 294 | 0.0 | 0.0 | 0.00 | 0.00 | 0.00 | 77 | 1021.7 |
| 20260902105841 | 78 | 294 | 0.0 | 0.0 | 0.00 | 0.00 | 0.00 | 77 | 1021.7 |
| 20260902105740 | 78 | 294 | 0.0 | 0.0 | 0.00 | 0.00 | 0.00 | 77 | 1021.7 |
| 20260902105638 | 78 | 294 | 0.0 | 0.0 | 0.00 | 0.00 | 0.00 | 77 | 1021.6 |
| 20260902105538 | 78 | 293 | 0.0 | 0.0 | 0.00 | 0.00 | 0.00 | 77 | 1021.7 |
| 20260902105438 | 78 | 293 | 0.0 | 0.0 | 0.00 | 0.00 | 0.00 | 77 | 1021.6 |
| 20260902105335 | 78 | 293 | 0.0 | 0.0 | 0.00 | 0.00 | 0.00 | 77 | 1021.6 |
| 20260902105233 | 78 | 293 | 0.0 | 0.0 | 0.00 | 0.00 | 0.00 | 77 | 1021.6 |
| 20260902105134 | 78 | 293 | 0.0 | 0.0 | 0.00 | 0.00 | 0.00 | 77 | 1021.7 |
| 20260902105031 | 78 | 293 | 0.0 | 0.0 | 0.00 | 0.00 | 0.00 | 77 | 1021.7 |
| 20260902104929 | 77 | 293 | 0.0 | 0.0 | 0.00 | 0.00 | 0.00 | 77 | 1021.7 |
| 20260902104828 | 78 | 293 | 0.0 | 0.0 | 0.00 | 0.00 | 0.00 | 77 | 1021.7 |
| 20260902104728 | 78 | 293 | 0.0 | 0.0 | 0.00 | 0.00 | 0.00 | 77 | 1021.9 |
| 20260902104620 | 77 | 293 | 0.0 | 0.0 | 0.00 | 0.00 | 0.00 | 77 | 1021.7 |
| 20260902104521 | 77 | 293 | 0.0 | 0.0 | 0.00 | 0.00 | 0.00 | 77 | 1021.6 |
| 20260902104421 | 77 | 294 | 0.0 | 0.0 | 0.00 | 0.00 | 0.00 | 77 | 1021.9 |
| 20260902104319 | 77 | 294 | 0.0 | 0.0 | 0.00 | 0.00 | 0.00 | 77 | 1021.9 |
| 20260902104218 | 77 | 293 | 0.0 | 0.0 | 0.00 | 0.00 | 0.00 | 77 | 1021.7 |
| 20260902104114 | 77 | 294 | 0.0 | 0.0 | 0.00 | 0.00 | 0.00 | 77 | 1021.7 |
| 20260902104010 | 77 | 294 | 0.0 | 0.0 | 0.00 | 0.00 | 0.00 | 78 | 1021.9 |
| 20260902103912 | 77 | 294 | 0.0 | 0.0 | 0.00 | 0.00 | 0.00 | 78 | 1021.9 |
| 20260902103810 | 77 | 294 | 0.0 | 0.0 | 0.00 | 0.00 | 0.00 | 78 | 1021.7 |
| 20260902103712 | 77 | 294 | 0.0 | 0.0 | 0.00 | 0.00 | 0.00 | 78 | 1021.7 |
| 20260902103610 | 77 | 294 | 0.0 | 0.0 | 0.00 | 0.00 | 0.00 | 78 | 1021.7 |
| 20260902103510 | 77 | 294 | 0.0 | 0.0 | 0.00 | 0.00 | 0.00 | 78 | 1021.7 |
| 20260902103408 | 77 | 294 | 0.0 | 0.0 | 0.00 | 0.00 | 0.00 | 78 | 1021.7 |
| 20260902103308 | 77 | 294 | 0.0 | 0.0 | 0.00 | 0.00 | 0.00 | 78 | 1021.7 |
| 20260902103206 | 77 | 294 | 0.0 | 0.0 | 0.00 | 0.00 | 0.00 | 78 | 1021.9 |
| 20260902103101 | 77 | 293 | 0.0 | 0.0 | 0.00 | 0.00 | 0.00 | 78 | 1021.7 |
| 20260902103002 | 77 | 293 | 0.0 | 0.0 | 0.00 | 0.00 | 0.00 | 78 | 1021.7 |
| 20260902102901 | 77 | 293 | 0.0 | 0.0 | 0.00 | 0.00 | 0.00 | 78 | 1021.9 |
| 20260902102801 | 77 | 293 | 0.0 | 0.0 | 0.00 | 0.00 | 0.00 | 78 | 1021.9 |
| 20260902102701 | 77 | 293 | 0.0 | 0.0 | 0.00 | 0.00 | 0.00 | 79 | 1021.9 |
| 20260902102600 | 77 | 293 | 0.0 | 0.0 | 0.00 | 0.00 | 0.00 | 79 | 1021.7 |
| 20260902102456 | 77 | 293 | 0.0 | 0.0 | 0.00 | 0.00 | 0.00 | 79 | 1021.7 |
| 20260902102357 | 77 | 293 | 0.0 | 0.0 | 0.00 | 0.00 | 0.00 | 79 | 1021.7 |
| 20260902102255 | 77 | 293 | 0.0 | 0.0 | 0.00 | 0.00 | 0.00 | 79 | 1021.7 |
| 20260902102156 | 77 | 294 | 0.0 | 0.0 | 0.00 | 0.00 | 0.00 | 78 | 1022.0 |
| 20260902102054 | 77 | 294 | 0.0 | 0.0 | 0.00 | 0.00 | 0.00 | 79 | 1021.9 |
| 20260902101956 | 77 | 294 | 0.0 | 0.0 | 0.00 | 0.00 | 0.00 | 79 | 1021.9 |
| 20260902101855 | 77 | 294 | 0.0 | 0.0 | 0.00 | 0.00 | 0.00 | 79 | 1021.9 |
| 20260902101754 | 77 | 296 | 0.0 | 0.0 | 0.00 | 0.00 | 0.00 | 79 | 1021.6 |
| 20260902101650 | 77 | 296 | 0.0 | 0.0 | 0.00 | 0.00 | 0.00 | 79 | 1021.9 |
| 20260902101551 | 77 | 297 | 0.0 | 0.0 | 0.00 | 0.00 | 0.00 | 79 | 1021.7 |
| 20260902101450 | 77 | 297 | 0.0 | 0.0 | 0.00 | 0.00 | 0.00 | 79 | 1021.9 |
| 20260902101350 | 77 | 297 | 0.0 | 0.0 | 0.00 | 0.00 | 0.00 | 79 | 1021.7 |
| 20260902101247 | 77 | 298 | 0.0 | 0.0 | 0.00 | 0.00 | 0.00 | 79 | 1021.9 |
| 20260902101147 | 77 | 298 | 0.0 | 0.0 | 0.00 | 0.00 | 0.00 | 79 | 1021.9 |
| 20260902101045 | 77 | 298 | 0.0 | 0.0 | 0.00 | 0.00 | 0.00 | 79 | 1021.9 |
| 20260902100942 | 77 | 299 | 0.0 | 0.0 | 0.00 | 0.00 | 0.00 | 79 | 1021.7 |
| 20260902100841 | 77 | 300 | 0.0 | 0.0 | 0.00 | 0.00 | 0.00 | 79 | 1021.7 |
| 20260902100741 | 77 | 300 | 0.0 | 0.0 | 0.00 | 0.00 | 0.00 | 79 | 1021.7 |
| 20260902100642 | 77 | 301 | 0.0 | 0.0 | 0.00 | 0.00 | 0.00 | 79 | 1021.7 |
| 20260902100540 | 77 | 304 | 0.0 | 0.0 | 0.00 | 0.00 | 0.00 | 79 | 1021.7 |
| 20260902100438 | 77 | 304 | 0.0 | 0.0 | 0.00 | 0.00 | 0.00 | 79 | 1021.6 |
| 20260902100334 | 77 | 306 | 0.0 | 0.0 | 0.00 | 0.00 | 0.00 | 79 | 1021.6 |
| 20260902100235 | 77 | 304 | 0.0 | 0.0 | 0.00 | 0.00 | 0.00 | 79 | 1021.7 |
| 20260902100135 | 77 | 302 | 0.0 | 0.0 | 0.00 | 0.00 | 0.00 | 79 | 1021.7 |
| 20260902100035 | 77 | 304 | 0.0 | 0.0 | 0.00 | 0.00 | 0.00 | 79 | 1021.5 |
| 20260902095936 | 77 | 305 | 0.0 | 0.0 | 0.00 | 0.00 | 0.00 | 79 | 1021.5 |
| 20260902095836 | 77 | 304 | 0.0 | 0.0 | 0.00 | 0.00 | 0.00 | 79 | 1021.6 |
| 20260902095734 | 77 | 307 | 0.0 | 0.0 | 0.00 | 0.00 | 0.00 | 79 | 1021.6 |
| 20260902095632 | 77 | 307 | 0.0 | 0.0 | 0.00 | 0.00 | 0.00 | 79 | 1021.6 |
| 20260902095531 | 77 | 306 | 0.0 | 0.0 | 0.00 | 0.00 | 0.00 | 79 | 1021.6 |
| 20260902095430 | 77 | 307 | 0.0 | 0.0 | 0.00 | 0.00 | 0.00 | 79 | 1021.6 |
| 20260902095328 | 77 | 308 | 0.0 | 0.0 | 0.00 | 0.00 | 0.00 | 79 | 1021.6 |
| 20260902095226 | 77 | 306 | 0.0 | 0.0 | 0.00 | 0.00 | 0.00 | 79 | 1021.6 |
| 20260902095126 | 77 | 306 | 0.0 | 0.0 | 0.00 | 0.00 | 0.00 | 79 | 1021.5 |
| 20260902095025 | 77 | 304 | 0.0 | 0.0 | 0.00 | 0.00 | 0.00 | 79 | 1021.5 |
| 20260902094923 | 77 | 305 | 0.0 | 0.0 | 0.00 | 0.00 | 0.00 | 79 | 1021.5 |
| 20260902094821 | 77 | 304 | 0.0 | 0.0 | 0.00 | 0.00 | 0.00 | 79 | 1021.6 |
| 20260902094722 | 77 | 304 | 0.0 | 0.0 | 0.00 | 0.00 | 0.00 | 79 | 1021.5 |
| 20260902094619 | 77 | 302 | 0.0 | 0.0 | 0.00 | 0.00 | 0.00 | 79 | 1021.5 |
| 20260902094519 | 77 | 302 | 0.0 | 0.0 | 0.00 | 0.00 | 0.00 | 79 | 1021.4 |
| 20260902094420 | 77 | 301 | 0.0 | 0.0 | 0.00 | 0.00 | 0.00 | 79 | 1021.5 |
| 20260902094320 | 77 | 304 | 0.0 | 0.0 | 0.00 | 0.00 | 0.00 | 79 | 1021.6 |
| 20260902094220 | 77 | 306 | 0.0 | 0.0 | 0.00 | 0.00 | 0.00 | 79 | 1021.5 |
| 20260902094120 | 77 | 306 | 0.0 | 0.0 | 0.00 | 0.00 | 0.00 | 79 | 1021.5 |
| 20260902094019 | 77 | 306 | 0.0 | 0.0 | 0.00 | 0.00 | 0.00 | 79 | 1021.5 |
| 20260902093920 | 77 | 306 | 0.0 | 0.0 | 0.00 | 0.00 | 0.00 | 79 | 1021.6 |
| 20260902093818 | 77 | 306 | 0.0 | 0.0 | 0.00 | 0.00 | 0.00 | 79 | 1021.5 |
| 20260902093718 | 77 | 306 | 0.0 | 0.0 | 0.00 | 0.00 | 0.00 | 79 | 1021.6 |
| 20260902093617 | 77 | 306 | 0.0 | 0.0 | 0.00 | 0.00 | 0.00 | 79 | 1021.5 |
| 20260902093516 | 77 | 307 | 0.0 | 0.0 | 0.00 | 0.00 | 0.00 | 79 | 1021.6 |
| 20260902093414 | 77 | 309 | 0.0 | 0.0 | 0.00 | 0.00 | 0.00 | 79 | 1021.5 |
| 20260902093314 | 77 | 308 | 0.0 | 0.0 | 0.00 | 0.00 | 0.00 | 79 | 1021.5 |
| 20260902093211 | 77 | 304 | 0.0 | 0.0 | 0.00 | 0.00 | 0.00 | 79 | 1021.5 |
| 20260902093110 | 77 | 307 | 0.0 | 0.0 | 0.00 | 0.00 | 0.00 | 79 | 1021.5 |
| 20260902093009 | 77 | 306 | 0.0 | 0.0 | 0.00 | 0.00 | 0.00 | 79 | 1021.5 |
| 20260902092910 | 77 | 323 | 0.0 | 0.0 | 0.00 | 0.00 | 0.00 | 79 | 1021.5 |
| 20260902092808 | 77 | 303 | 0.0 | 0.0 | 0.00 | 0.00 | 0.00 | 79 | 1021.4 |
| 20260902092709 | 77 | 304 | 0.0 | 0.0 | 0.00 | 0.00 | 0.00 | 79 | 1021.4 |
| 20260902092603 | 77 | 306 | 0.0 | 0.0 | 0.00 | 0.00 | 0.00 | 79 | 1021.4 |
| 20260902092504 | 77 | 309 | 0.0 | 0.0 | 0.00 | 0.00 | 0.00 | 79 | 1021.5 |
| 20260902092403 | 77 | 296 | 0.0 | 0.0 | 0.00 | 0.00 | 0.00 | 79 | 1021.4 |
| 20260902092305 | 77 | 303 | 0.0 | 0.0 | 0.00 | 0.00 | 0.00 | 79 | 1021.5 |
| 20260902092203 | 77 | 311 | 0.0 | 0.0 | 0.00 | 0.00 | 0.00 | 78 | 1021.4 |
| 20260902092102 | 77 | 317 | 0.0 | 0.0 | 0.00 | 0.00 | 0.00 | 78 | 1021.4 |
| 20260902092005 | 77 | 311 | 0.0 | 0.0 | 0.00 | 0.00 | 0.00 | 78 | 1021.4 |
| 20260902091904 | 77 | 320 | 0.0 | 0.0 | 0.00 | 0.00 | 0.00 | 78 | 1021.4 |
| 20260902091802 | 77 | 319 | 0.0 | 0.0 | 0.00 | 0.00 | 0.00 | 78 | 1021.4 |
| 20260902091703 | 77 | 313 | 0.0 | 0.0 | 0.00 | 0.00 | 0.00 | 78 | 1021.5 |
| 20260902091604 | 77 | 326 | 0.0 | 0.0 | 0.00 | 0.00 | 0.00 | 78 | 1021.5 |
| 20260902091503 | 77 | 315 | 0.0 | 0.0 | 0.00 | 0.00 | 0.00 | 78 | 1021.4 |
| 20260902091403 | 77 | 317 | 0.0 | 0.0 | 0.00 | 0.00 | 0.00 | 78 | 1021.4 |
| 20260902091302 | 77 | 313 | 0.0 | 0.0 | 0.00 | 0.00 | 0.00 | 78 | 1021.5 |
| 20260902091202 | 77 | 305 | 0.0 | 0.0 | 0.00 | 0.00 | 0.00 | 78 | 1021.5 |
| 20260902091103 | 77 | 306 | 0.0 | 0.0 | 0.00 | 0.00 | 0.00 | 78 | 1021.4 |
| 20260902091003 | 77 | 319 | 0.0 | 0.0 | 0.00 | 0.00 | 0.00 | 78 | 1021.4 |
| 20260902090904 | 77 | 306 | 0.0 | 0.0 | 0.00 | 0.00 | 0.00 | 78 | 1021.4 |
| 20260902090804 | 77 | 302 | 0.0 | 0.0 | 0.00 | 0.00 | 0.00 | 78 | 1021.4 |
| 20260902090704 | 77 | 310 | 0.0 | 0.0 | 0.00 | 0.00 | 0.00 | 79 | 1021.4 |
| 20260902090602 | 77 | 294 | 0.0 | 0.0 | 0.00 | 0.00 | 0.00 | 79 | 1021.5 |
| 20260902090505 | 77 | 304 | 0.0 | 0.0 | 0.00 | 0.00 | 0.00 | 79 | 1021.4 |
| 20260902090402 | 77 | 298 | 0.0 | 0.0 | 0.00 | 0.00 | 0.00 | 79 | 1021.5 |
| 20260902090303 | 77 | 309 | 0.0 | 0.0 | 0.00 | 0.00 | 0.00 | 79 | 1021.4 |
| 20260902090203 | 77 | 284 | 0.0 | 0.0 | 0.00 | 0.00 | 0.00 | 79 | 1021.4 |
| 20260902090002 | 77 | 296 | 0.0 | 0.0 | 0.00 | 0.00 | 0.00 | 79 | 1021.4 |
| 20260902085902 | 77 | 312 | 0.0 | 0.0 | 0.00 | 0.00 | 0.00 | 79 | 1021.4 |
| 20260902085804 | 77 | 313 | 0.0 | 0.0 | 0.00 | 0.00 | 0.00 | 79 | 1021.5 |
| 20260902085659 | 77 | 313 | 0.0 | 0.0 | 0.00 | 0.00 | 0.00 | 79 | 1021.4 |
| 20260902085556 | 77 | 306 | 0.0 | 0.0 | 0.00 | 0.00 | 0.00 | 79 | 1021.4 |
| 20260902085458 | 77 | 315 | 0.0 | 0.0 | 0.00 | 0.00 | 0.00 | 79 | 1021.3 |
| 20260902085355 | 77 | 304 | 0.0 | 0.0 | 0.00 | 0.00 | 0.00 | 79 | 1021.4 |
| 20260902085256 | 77 | 301 | 0.0 | 0.0 | 0.00 | 0.00 | 0.00 | 79 | 1021.4 |
| 20260902085154 | 77 | 299 | 0.0 | 0.0 | 0.00 | 0.00 | 0.00 | 79 | 1021.4 |
| 20260902085052 | 77 | 302 | 0.0 | 0.0 | 0.00 | 0.00 | 0.00 | 79 | 1021.4 |
| 20260902084952 | 77 | 296 | 0.0 | 0.0 | 0.00 | 0.00 | 0.00 | 79 | 1021.4 |
| 20260902084850 | 77 | 300 | 0.0 | 0.0 | 0.00 | 0.00 | 0.00 | 79 | 1021.4 |
| 20260902084750 | 77 | 296 | 0.0 | 0.0 | 0.00 | 0.00 | 0.00 | 79 | 1021.4 |
| 20260902084645 | 77 | 296 | 0.0 | 0.0 | 0.00 | 0.00 | 0.00 | 79 | 1021.4 |
| 20260902084543 | 77 | 288 | 0.0 | 0.0 | 0.00 | 0.00 | 0.00 | 79 | 1021.4 |
| 20260902084443 | 77 | 288 | 0.0 | 0.0 | 0.00 | 0.00 | 0.00 | 79 | 1021.4 |
| 20260902084344 | 77 | 282 | 0.0 | 0.0 | 0.00 | 0.00 | 0.00 | 79 | 1021.5 |
| 20260902084240 | 77 | 281 | 0.0 | 0.0 | 0.00 | 0.00 | 0.00 | 79 | 1021.4 |
| 20260902084140 | 77 | 281 | 0.0 | 0.0 | 0.00 | 0.00 | 0.00 | 79 | 1021.4 |
| 20260902084040 | 77 | 281 | 0.0 | 0.0 | 0.00 | 0.00 | 0.00 | 79 | 1021.4 |
| 20260902083938 | 77 | 281 | 0.0 | 0.0 | 0.00 | 0.00 | 0.00 | 79 | 1021.4 |
| 20260902083837 | 77 | 284 | 0.0 | 0.0 | 0.00 | 0.00 | 0.00 | 79 | 1021.4 |
| 20260902083735 | 77 | 284 | 0.0 | 0.0 | 0.00 | 0.00 | 0.00 | 79 | 1021.4 |
| 20260902083635 | 77 | 285 | 0.0 | 0.0 | 0.00 | 0.00 | 0.00 | 79 | 1021.4 |
| 20260902083534 | 77 | 289 | 0.0 | 0.0 | 0.00 | 0.00 | 0.00 | 79 | 1021.4 |
| 20260902083432 | 77 | 290 | 0.0 | 0.0 | 0.00 | 0.00 | 0.00 | 79 | 1021.4 |
| 20260902083334 | 77 | 291 | 0.0 | 0.0 | 0.00 | 0.00 | 0.00 | 79 | 1021.4 |
| 20260902083233 | 77 | 290 | 0.0 | 0.0 | 0.00 | 0.00 | 0.00 | 79 | 1021.5 |
| 20260902083132 | 77 | 296 | 0.0 | 0.0 | 0.00 | 0.00 | 0.00 | 79 | 1021.4 |
| 20260902083031 | 77 | 294 | 0.0 | 0.0 | 0.00 | 0.00 | 0.00 | 79 | 1021.5 |
| 20260902082932 | 77 | 289 | 0.0 | 0.0 | 0.00 | 0.00 | 0.00 | 79 | 1021.4 |
| 20260902082831 | 77 | 292 | 0.0 | 0.0 | 0.00 | 0.00 | 0.00 | 79 | 1021.4 |
| 20260902082729 | 77 | 291 | 0.0 | 0.0 | 0.00 | 0.00 | 0.00 | 79 | 1021.4 |
| 20260902082629 | 77 | 292 | 0.0 | 0.0 | 0.00 | 0.00 | 0.00 | 79 | 1021.4 |
| 20260902082527 | 77 | 292 | 0.0 | 0.0 | 0.00 | 0.00 | 0.00 | 79 | 1021.4 |
| 20260902082423 | 77 | 294 | 0.0 | 0.0 | 0.00 | 0.00 | 0.00 | 79 | 1021.4 |
| 20260902082324 | 77 | 294 | 0.0 | 0.0 | 0.00 | 0.00 | 0.00 | 79 | 1021.4 |
| 20260902082222 | 77 | 292 | 0.0 | 0.0 | 0.00 | 0.00 | 0.00 | 79 | 1021.4 |
| 20260902082122 | 77 | 285 | 0.0 | 0.0 | 0.00 | 0.00 | 0.00 | 79 | 1021.4 |
| 20260902082024 | 77 | 284 | 0.0 | 0.0 | 0.00 | 0.00 | 0.00 | 78 | 1021.4 |
| 20260902081921 | 77 | 286 | 0.0 | 0.0 | 0.00 | 0.00 | 0.00 | 78 | 1021.4 |
| 20260902081821 | 77 | 275 | 0.0 | 0.0 | 0.00 | 0.00 | 0.00 | 78 | 1021.4 |
| 20260902081721 | 77 | 292 | 0.0 | 0.0 | 0.00 | 0.00 | 0.00 | 78 | 1021.4 |
| 20260902081621 | 77 | 301 | 0.0 | 0.0 | 0.00 | 0.00 | 0.00 | 78 | 1021.3 |
| 20260902081522 | 77 | 301 | 0.0 | 0.0 | 0.00 | 0.00 | 0.00 | 78 | 1021.3 |
| 20260902081420 | 77 | 283 | 0.0 | 0.0 | 0.00 | 0.00 | 0.00 | 78 | 1021.4 |
| 20260902081321 | 78 | 286 | 0.0 | 0.0 | 0.00 | 0.00 | 0.00 | 78 | 1021.4 |
| 20260902081213 | 78 | 281 | 0.0 | 0.0 | 0.00 | 0.00 | 0.00 | 78 | 1021.3 |
| 20260902081112 | 78 | 279 | 0.0 | 0.0 | 0.00 | 0.00 | 0.00 | 78 | 1021.5 |
| 20260902081012 | 78 | 292 | 0.0 | 0.0 | 0.00 | 0.00 | 0.00 | 78 | 1021.5 |
| 20260902080912 | 78 | 293 | 0.0 | 0.0 | 0.00 | 0.00 | 0.00 | 77 | 1021.4 |
| 20260902080813 | 78 | 290 | 0.0 | 0.0 | 0.00 | 0.00 | 0.00 | 78 | 1021.4 |
| 20260902080714 | 78 | 309 | 0.0 | 0.0 | 0.00 | 0.00 | 0.00 | 77 | 1021.4 |
| 20260902080612 | 78 | 292 | 0.0 | 0.0 | 0.00 | 0.00 | 0.00 | 77 | 1021.4 |
| 20260902080514 | 78 | 306 | 0.0 | 0.0 | 0.00 | 0.00 | 0.00 | 78 | 1021.4 |
| 20260902080412 | 78 | 325 | 0.0 | 0.0 | 0.00 | 0.00 | 0.00 | 77 | 1021.4 |
| 20260902080314 | 78 | 291 | 0.0 | 0.0 | 0.00 | 0.00 | 0.00 | 77 | 1021.4 |
| 20260902080214 | 78 | 294 | 0.0 | 0.0 | 0.00 | 0.00 | 0.00 | 77 | 1021.3 |
| 20260902080112 | 78 | 296 | 0.0 | 0.0 | 0.00 | 0.00 | 0.00 | 77 | 1021.4 |
| 20260902080013 | 78 | 298 | 0.0 | 0.0 | 0.00 | 0.00 | 0.00 | 77 | 1021.4 |
| 20260902075913 | 78 | 303 | 0.0 | 0.0 | 0.00 | 0.00 | 0.00 | 77 | 1021.4 |
| 20260902075812 | 78 | 302 | 0.0 | 0.0 | 0.00 | 0.00 | 0.00 | 77 | 1021.4 |
| 20260902075714 | 78 | 305 | 0.0 | 0.0 | 0.00 | 0.00 | 0.00 | 77 | 1021.4 |
| 20260902075612 | 78 | 296 | 0.0 | 0.0 | 0.00 | 0.00 | 0.00 | 77 | 1021.4 |
| 20260902075514 | 78 | 295 | 0.0 | 0.0 | 0.00 | 0.00 | 0.00 | 77 | 1021.3 |
| 20260902075412 | 78 | 295 | 0.0 | 0.0 | 0.00 | 0.00 | 0.00 | 77 | 1021.3 |
| 20260902075314 | 78 | 294 | 0.0 | 0.0 | 0.00 | 0.00 | 0.00 | 77 | 1021.3 |
| 20260902075212 | 78 | 294 | 0.0 | 0.0 | 0.00 | 0.00 | 0.00 | 77 | 1021.3 |
| 20260902075113 | 78 | 294 | 0.0 | 0.0 | 0.00 | 0.00 | 0.00 | 77 | 1021.3 |
| 20260902075013 | 78 | 294 | 0.0 | 0.0 | 0.00 | 0.00 | 0.00 | 77 | 1021.3 |
| 20260902074912 | 78 | 284 | 0.0 | 0.0 | 0.00 | 0.00 | 0.00 | 77 | 1021.2 |
| 20260902074813 | 78 | 284 | 0.0 | 0.0 | 0.00 | 0.00 | 0.00 | 77 | 1021.3 |
| 20260902074714 | 78 | 284 | 0.0 | 0.0 | 0.00 | 0.00 | 0.00 | 77 | 1021.2 |
| 20260902074613 | 78 | 284 | 0.0 | 0.0 | 0.00 | 0.00 | 0.00 | 77 | 1021.3 |
| 20260902074512 | 78 | 284 | 0.0 | 0.0 | 0.00 | 0.00 | 0.00 | 77 | 1021.2 |
| 20260902074413 | 78 | 284 | 0.0 | 0.0 | 0.00 | 0.00 | 0.00 | 77 | 1021.4 |
| 20260902074313 | 78 | 284 | 0.0 | 0.0 | 0.00 | 0.00 | 0.00 | 77 | 1021.3 |
| 20260902074213 | 78 | 284 | 0.0 | 0.0 | 0.00 | 0.00 | 0.00 | 77 | 1021.2 |
| 20260902074113 | 78 | 283 | 0.0 | 0.0 | 0.00 | 0.00 | 0.00 | 77 | 1021.3 |
| 20260902074013 | 78 | 283 | 0.0 | 0.0 | 0.00 | 0.00 | 0.00 | 77 | 1021.3 |
| 20260902073908 | 78 | 283 | 0.0 | 0.0 | 0.00 | 0.00 | 0.00 | 77 | 1021.2 |
| 20260902073810 | 78 | 282 | 0.0 | 0.0 | 0.00 | 0.00 | 0.00 | 77 | 1021.3 |
| 20260902073709 | 78 | 271 | 0.0 | 0.0 | 0.00 | 0.00 | 0.00 | 77 | 1021.3 |
| 20260902073609 | 78 | 271 | 0.0 | 0.0 | 0.00 | 0.00 | 0.00 | 77 | 1021.3 |
| 20260902073509 | 78 | 271 | 0.0 | 0.0 | 0.00 | 0.00 | 0.00 | 77 | 1021.3 |
| 20260902073408 | 78 | 271 | 0.0 | 0.0 | 0.00 | 0.00 | 0.00 | 77 | 1021.3 |
| 20260902073310 | 78 | 271 | 0.0 | 0.0 | 0.00 | 0.00 | 0.00 | 77 | 1021.3 |
| 20260902073209 | 78 | 271 | 0.0 | 0.0 | 0.00 | 0.00 | 0.00 | 77 | 1021.3 |
| 20260902073109 | 78 | 268 | 0.0 | 0.0 | 0.00 | 0.00 | 0.00 | 77 | 1021.3 |
| 20260902073010 | 78 | 268 | 0.0 | 0.0 | 0.00 | 0.00 | 0.00 | 77 | 1021.3 |
| 20260902072910 | 78 | 268 | 0.0 | 0.0 | 0.00 | 0.00 | 0.00 | 77 | 1021.2 |
| 20260902072808 | 78 | 268 | 0.0 | 0.0 | 0.00 | 0.00 | 0.00 | 77 | 1021.3 |
| 20260902072708 | 78 | 268 | 0.0 | 0.0 | 0.00 | 0.00 | 0.00 | 77 | 1021.3 |
| 20260902072610 | 78 | 268 | 0.0 | 0.0 | 0.00 | 0.00 | 0.00 | 77 | 1021.2 |
| 20260902072510 | 78 | 268 | 0.0 | 0.0 | 0.00 | 0.00 | 0.00 | 77 | 1021.2 |
| 20260902072410 | 78 | 268 | 0.0 | 0.0 | 0.00 | 0.00 | 0.00 | 77 | 1021.3 |
| 20260902072310 | 78 | 268 | 0.0 | 0.0 | 0.00 | 0.00 | 0.00 | 77 | 1021.2 |
| 20260902072210 | 78 | 268 | 0.0 | 0.0 | 0.00 | 0.00 | 0.00 | 77 | 1021.3 |
| 20260902072108 | 78 | 268 | 0.0 | 0.0 | 0.00 | 0.00 | 0.00 | 77 | 1021.3 |
| 20260902072010 | 78 | 268 | 0.0 | 0.0 | 0.00 | 0.00 | 0.00 | 77 | 1021.2 |
| 20260902071909 | 78 | 268 | 0.0 | 0.0 | 0.00 | 0.00 | 0.00 | 77 | 1021.2 |
| 20260902071808 | 78 | 268 | 0.0 | 0.0 | 0.00 | 0.00 | 0.00 | 77 | 1021.3 |
| 20260902071708 | 78 | 268 | 0.0 | 0.0 | 0.00 | 0.00 | 0.00 | 77 | 1021.2 |
| 20260902071610 | 78 | 267 | 0.0 | 0.0 | 0.00 | 0.00 | 0.00 | 77 | 1021.3 |
| 20260902071508 | 78 | 267 | 0.0 | 0.0 | 0.00 | 0.00 | 0.00 | 78 | 1021.3 |
| 20260902071409 | 78 | 267 | 0.0 | 0.0 | 0.00 | 0.00 | 0.00 | 78 | 1021.2 |
| 20260902071308 | 78 | 267 | 0.0 | 0.0 | 0.00 | 0.00 | 0.00 | 78 | 1021.2 |
| 20260902071210 | 78 | 267 | 0.0 | 0.0 | 0.00 | 0.00 | 0.00 | 78 | 1021.3 |
| 20260902071109 | 78 | 267 | 0.0 | 0.0 | 0.00 | 0.00 | 0.00 | 78 | 1021.2 |
| 20260902071010 | 78 | 267 | 0.0 | 0.0 | 0.00 | 0.00 | 0.00 | 78 | 1021.3 |
| 20260902070909 | 78 | 267 | 0.0 | 0.0 | 0.00 | 0.00 | 0.00 | 78 | 1021.3 |
| 20260902070808 | 78 | 267 | 0.0 | 0.0 | 0.00 | 0.00 | 0.00 | 78 | 1021.2 |
| 20260902070709 | 78 | 267 | 0.0 | 0.0 | 0.00 | 0.00 | 0.00 | 78 | 1021.3 |
| 20260902070604 | 78 | 267 | 0.0 | 0.0 | 0.00 | 0.00 | 0.00 | 78 | 1021.2 |
| 20260902070505 | 78 | 267 | 0.0 | 0.0 | 0.00 | 0.00 | 0.00 | 78 | 1021.2 |
| 20260902070405 | 78 | 267 | 0.0 | 0.0 | 0.00 | 0.00 | 0.00 | 78 | 1021.2 |
| 20260902070305 | 78 | 267 | 0.0 | 0.0 | 0.00 | 0.00 | 0.00 | 78 | 1021.2 |
| 20260902070204 | 77 | 267 | 0.0 | 0.0 | 0.00 | 0.00 | 0.00 | 78 | 1021.2 |
| 20260902070105 | 77 | 267 | 0.0 | 0.0 | 0.00 | 0.00 | 0.00 | 78 | 1021.2 |
| 20260902070007 | 77 | 267 | 0.0 | 0.0 | 0.00 | 0.00 | 0.00 | 78 | 1021.2 |
| 20260902065904 | 77 | 267 | 0.0 | 0.0 | 0.00 | 0.00 | 0.00 | 78 | 1021.2 |
| 20260902065804 | 77 | 267 | 0.0 | 0.0 | 0.00 | 0.00 | 0.00 | 78 | 1021.2 |
| 20260902065705 | 77 | 267 | 0.0 | 0.0 | 0.00 | 0.00 | 0.00 | 78 | 1021.1 |
| 20260902065604 | 77 | 267 | 0.0 | 0.0 | 0.00 | 0.00 | 0.00 | 78 | 1021.2 |
| 20260902065504 | 77 | 267 | 0.0 | 0.0 | 0.00 | 0.00 | 0.00 | 79 | 1021.2 |
| 20260902065404 | 77 | 267 | 0.0 | 0.0 | 0.00 | 0.00 | 0.00 | 79 | 1021.2 |
| 20260902065306 | 77 | 267 | 0.0 | 0.0 | 0.00 | 0.00 | 0.00 | 79 | 1021.1 |
| 20260902065204 | 77 | 267 | 0.0 | 0.0 | 0.00 | 0.00 | 0.00 | 79 | 1021.1 |
| 20260902065104 | 77 | 267 | 0.0 | 0.0 | 0.00 | 0.00 | 0.00 | 79 | 1021.1 |
| 20260902065005 | 77 | 267 | 0.0 | 0.0 | 0.00 | 0.00 | 0.00 | 79 | 1021.2 |
| 20260902064904 | 77 | 267 | 0.0 | 0.0 | 0.00 | 0.00 | 0.00 | 79 | 1021.1 |
| 20260902064805 | 77 | 267 | 0.0 | 0.0 | 0.00 | 0.00 | 0.00 | 79 | 1021.2 |
| 20260902064705 | 77 | 267 | 0.0 | 0.0 | 0.00 | 0.00 | 0.00 | 79 | 1021.2 |
| 20260902064604 | 77 | 267 | 0.0 | 0.0 | 0.00 | 0.00 | 0.00 | 79 | 1021.2 |
| 20260902064506 | 77 | 267 | 0.0 | 0.0 | 0.00 | 0.00 | 0.00 | 79 | 1021.1 |
| 20260902064404 | 77 | 267 | 0.0 | 0.0 | 0.00 | 0.00 | 0.00 | 79 | 1021.1 |
| 20260902064304 | 77 | 267 | 0.0 | 0.0 | 0.00 | 0.00 | 0.00 | 79 | 1021.2 |
| 20260902064204 | 77 | 267 | 0.0 | 0.0 | 0.00 | 0.00 | 0.00 | 79 | 1021.2 |
| 20260902064106 | 77 | 267 | 0.0 | 0.0 | 0.00 | 0.00 | 0.00 | 79 | 1021.1 |
| 20260902064005 | 77 | 267 | 0.0 | 0.0 | 0.00 | 0.00 | 0.00 | 79 | 1021.1 |
| 20260902063905 | 77 | 267 | 0.0 | 0.0 | 0.00 | 0.00 | 0.00 | 79 | 1021.1 |
| 20260902063806 | 77 | 267 | 0.0 | 0.0 | 0.00 | 0.00 | 0.00 | 79 | 1021.1 |
| 20260902063704 | 77 | 267 | 0.0 | 0.0 | 0.00 | 0.00 | 0.00 | 79 | 1021.1 |
| 20260902063604 | 77 | 267 | 0.0 | 0.0 | 0.00 | 0.00 | 0.00 | 79 | 1021.2 |
| 20260902063505 | 77 | 267 | 0.0 | 0.0 | 0.00 | 0.00 | 0.00 | 79 | 1021.1 |
| 20260902063406 | 77 | 267 | 0.0 | 0.0 | 0.00 | 0.00 | 0.00 | 79 | 1021.1 |
| 20260902063259 | 77 | 267 | 0.0 | 0.0 | 0.00 | 0.00 | 0.00 | 79 | 1021.1 |
| 20260902063202 | 77 | 267 | 0.0 | 0.0 | 0.00 | 0.00 | 0.00 | 79 | 1021.2 |
| 20260902063100 | 77 | 267 | 0.0 | 0.0 | 0.00 | 0.00 | 0.00 | 79 | 1021.1 |
| 20260902063001 | 77 | 267 | 0.0 | 0.0 | 0.00 | 0.00 | 0.00 | 79 | 1021.2 |
| 20260902062902 | 77 | 267 | 0.0 | 0.0 | 0.00 | 0.00 | 0.00 | 79 | 1021.1 |
| 20260902062802 | 77 | 267 | 0.0 | 0.0 | 0.00 | 0.00 | 0.00 | 79 | 1021.1 |
| 20260902062700 | 77 | 267 | 0.0 | 0.0 | 0.00 | 0.00 | 0.00 | 79 | 1021.2 |
| 20260902062602 | 77 | 267 | 0.0 | 0.0 | 0.00 | 0.00 | 0.00 | 79 | 1021.1 |
| 20260902062500 | 77 | 267 | 0.0 | 0.0 | 0.00 | 0.00 | 0.00 | 79 | 1021.2 |
| 20260902062401 | 77 | 267 | 0.0 | 0.0 | 0.00 | 0.00 | 0.00 | 79 | 1021.1 |
| 20260902062301 | 77 | 267 | 0.0 | 0.0 | 0.00 | 0.00 | 0.00 | 79 | 1021.2 |
| 20260902062202 | 77 | 267 | 0.0 | 0.0 | 0.00 | 0.00 | 0.00 | 79 | 1021.1 |
| 20260902062101 | 77 | 267 | 0.0 | 0.0 | 0.00 | 0.00 | 0.00 | 79 | 1021.2 |
| 20260902062002 | 77 | 267 | 0.0 | 0.0 | 0.00 | 0.00 | 0.00 | 79 | 1021.1 |
| 20260902061901 | 77 | 267 | 0.0 | 0.0 | 0.00 | 0.00 | 0.00 | 79 | 1021.2 |
| 20260902061802 | 77 | 267 | 0.0 | 0.0 | 0.00 | 0.00 | 0.00 | 79 | 1021.2 |
| 20260902061700 | 77 | 267 | 0.0 | 0.0 | 0.00 | 0.00 | 0.00 | 79 | 1021.2 |
| 20260902061602 | 77 | 267 | 0.0 | 0.0 | 0.00 | 0.00 | 0.00 | 79 | 1021.2 |
| 20260902061500 | 77 | 267 | 0.0 | 0.0 | 0.00 | 0.00 | 0.00 | 79 | 1021.1 |
| 20260902061401 | 77 | 267 | 0.0 | 0.0 | 0.00 | 0.00 | 0.00 | 79 | 1021.2 |
| 20260902061300 | 77 | 267 | 0.0 | 0.0 | 0.00 | 0.00 | 0.00 | 79 | 1021.2 |
| 20260902061201 | 77 | 267 | 0.0 | 0.0 | 0.00 | 0.00 | 0.00 | 79 | 1021.3 |
| 20260902061100 | 77 | 267 | 0.0 | 0.0 | 0.00 | 0.00 | 0.00 | 79 | 1021.2 |
| 20260902061000 | 77 | 267 | 0.0 | 0.0 | 0.00 | 0.00 | 0.00 | 79 | 1021.3 |
| 20260902060900 | 77 | 267 | 0.0 | 0.0 | 0.00 | 0.00 | 0.00 | 79 | 1021.3 |
| 20260902060802 | 77 | 267 | 0.0 | 0.0 | 0.00 | 0.00 | 0.00 | 79 | 1021.3 |
| 20260902060654 | 78 | 267 | 0.0 | 0.0 | 0.00 | 0.00 | 0.00 | 79 | 1021.3 |
| 20260902060556 | 78 | 267 | 0.0 | 0.0 | 0.00 | 0.00 | 0.00 | 79 | 1021.3 |
| 20260902060454 | 78 | 267 | 0.0 | 0.0 | 0.00 | 0.00 | 0.00 | 79 | 1021.2 |
| 20260902060352 | 78 | 267 | 0.0 | 0.0 | 0.00 | 0.00 | 0.00 | 79 | 1021.2 |
| 20260902060250 | 78 | 267 | 0.0 | 0.0 | 0.00 | 0.00 | 0.00 | 79 | 1021.3 |
| 20260902060148 | 78 | 267 | 0.0 | 0.0 | 0.00 | 0.00 | 0.00 | 79 | 1021.2 |
| 20260902060047 | 78 | 266 | 0.0 | 0.0 | 0.00 | 0.00 | 0.00 | 79 | 1021.3 |
| 20260902055946 | 78 | 267 | 0.0 | 0.0 | 0.00 | 0.00 | 0.00 | 79 | 1021.3 |
| 20260902055846 | 78 | 267 | 0.0 | 0.0 | 0.00 | 0.00 | 0.00 | 79 | 1021.3 |
| 20260902055743 | 78 | 266 | 0.0 | 0.0 | 0.00 | 0.00 | 0.00 | 79 | 1021.3 |
| 20260902055641 | 78 | 266 | 0.0 | 0.0 | 0.00 | 0.00 | 0.00 | 79 | 1021.3 |
| 20260902055540 | 78 | 267 | 0.0 | 0.0 | 0.00 | 0.00 | 0.00 | 79 | 1021.3 |
| 20260902055440 | 78 | 266 | 0.0 | 0.0 | 0.00 | 0.00 | 0.00 | 79 | 1021.3 |
| 20260902055340 | 78 | 266 | 0.0 | 0.0 | 0.00 | 0.00 | 0.00 | 79 | 1021.3 |
| 20260902055237 | 78 | 267 | 0.0 | 0.0 | 0.00 | 0.00 | 0.00 | 79 | 1021.3 |
| 20260902055128 | 78 | 267 | 0.0 | 0.0 | 0.00 | 0.00 | 0.00 | 79 | 1021.2 |
| 20260902055027 | 78 | 267 | 0.0 | 0.0 | 0.00 | 0.00 | 0.00 | 79 | 1021.3 |
| 20260902054928 | 78 | 267 | 0.0 | 0.0 | 0.00 | 0.00 | 0.00 | 79 | 1021.3 |
| 20260902054826 | 78 | 267 | 0.0 | 0.0 | 0.00 | 0.00 | 0.00 | 78 | 1021.3 |
| 20260902054727 | 78 | 267 | 0.0 | 0.0 | 0.00 | 0.00 | 0.00 | 79 | 1021.2 |
| 20260902054628 | 78 | 302 | 0.0 | 0.0 | 0.00 | 0.00 | 0.00 | 79 | 1021.3 |
| 20260902054525 | 78 | 302 | 0.0 | 0.0 | 0.00 | 0.00 | 0.00 | 79 | 1021.2 |
| 20260902054426 | 78 | 305 | 0.0 | 0.0 | 0.00 | 0.00 | 0.00 | 79 | 1021.2 |
| 20260902054323 | 78 | 305 | 0.0 | 0.0 | 0.00 | 0.00 | 0.00 | 79 | 1021.2 |
| 20260902054220 | 78 | 306 | 0.0 | 0.0 | 0.00 | 0.00 | 0.00 | 79 | 1021.2 |
| 20260902054120 | 78 | 305 | 0.0 | 0.0 | 0.00 | 0.00 | 0.00 | 79 | 1021.2 |
| 20260902054020 | 78 | 305 | 0.0 | 0.0 | 0.00 | 0.00 | 0.00 | 78 | 1021.2 |
| 20260902053916 | 78 | 306 | 0.0 | 0.0 | 0.00 | 0.00 | 0.00 | 78 | 1021.2 |
| 20260902053817 | 78 | 306 | 0.0 | 0.0 | 0.00 | 0.00 | 0.00 | 78 | 1021.2 |
| 20260902053714 | 78 | 306 | 0.0 | 0.0 | 0.00 | 0.00 | 0.00 | 79 | 1021.2 |
| 20260902053604 | 78 | 306 | 0.0 | 0.0 | 0.00 | 0.00 | 0.00 | 78 | 1021.2 |
| 20260902053506 | 78 | 306 | 0.0 | 0.0 | 0.00 | 0.00 | 0.00 | 78 | 1021.2 |
| 20260902053405 | 78 | 306 | 0.0 | 0.0 | 0.00 | 0.00 | 0.00 | 78 | 1021.2 |
| 20260902053306 | 78 | 306 | 0.0 | 0.0 | 0.00 | 0.00 | 0.00 | 78 | 1021.2 |
| 20260902053204 | 78 | 306 | 0.0 | 0.0 | 0.00 | 0.00 | 0.00 | 78 | 1021.2 |
| 20260902053100 | 78 | 306 | 0.0 | 0.0 | 0.00 | 0.00 | 0.00 | 78 | 1021.1 |
| 20260902052958 | 78 | 306 | 0.0 | 0.0 | 0.00 | 0.00 | 0.00 | 78 | 1021.2 |
| 20260902052859 | 78 | 306 | 0.0 | 0.0 | 0.00 | 0.00 | 0.00 | 78 | 1021.2 |
| 20260902052758 | 78 | 306 | 0.0 | 0.0 | 0.00 | 0.00 | 0.00 | 78 | 1021.2 |
| 20260902052659 | 78 | 306 | 0.0 | 0.0 | 0.00 | 0.00 | 0.00 | 78 | 1021.2 |
| 20260902052558 | 78 | 306 | 0.0 | 0.0 | 0.00 | 0.00 | 0.00 | 78 | 1021.1 |
| 20260902052458 | 78 | 306 | 0.0 | 0.0 | 0.00 | 0.00 | 0.00 | 78 | 1021.2 |
| 20260902052355 | 78 | 306 | 0.0 | 0.0 | 0.00 | 0.00 | 0.00 | 78 | 1021.2 |
| 20260902052256 | 78 | 306 | 0.0 | 0.0 | 0.00 | 0.00 | 0.00 | 78 | 1021.3 |
| 20260902052152 | 78 | 306 | 0.0 | 0.0 | 0.00 | 0.00 | 0.00 | 78 | 1021.2 |
| 20260902052048 | 78 | 306 | 0.0 | 0.0 | 0.00 | 0.00 | 0.00 | 78 | 1021.2 |
| 20260902051947 | 78 | 306 | 0.0 | 0.0 | 0.00 | 0.00 | 0.00 | 78 | 1021.1 |
| 20260902051846 | 78 | 306 | 0.0 | 0.0 | 0.00 | 0.00 | 0.00 | 78 | 1021.2 |
| 20260902051744 | 78 | 306 | 0.0 | 0.0 | 0.00 | 0.00 | 0.00 | 78 | 1021.1 |
| 20260902051644 | 78 | 306 | 0.0 | 0.0 | 0.00 | 0.00 | 0.00 | 78 | 1021.2 |
| 20260902051545 | 78 | 306 | 0.0 | 0.0 | 0.00 | 0.00 | 0.00 | 78 | 1021.2 |
| 20260902051444 | 78 | 306 | 0.0 | 0.0 | 0.00 | 0.00 | 0.00 | 78 | 1021.2 |
| 20260902051344 | 78 | 306 | 0.0 | 0.0 | 0.00 | 0.00 | 0.00 | 78 | 1021.2 |
| 20260902051242 | 78 | 307 | 0.0 | 0.0 | 0.00 | 0.00 | 0.00 | 78 | 1021.1 |
| 20260902051143 | 78 | 307 | 0.0 | 0.0 | 0.00 | 0.00 | 0.00 | 78 | 1021.2 |
| 20260902051040 | 78 | 307 | 0.0 | 0.0 | 0.00 | 0.00 | 0.00 | 78 | 1021.2 |
| 20260902050939 | 78 | 307 | 0.0 | 0.0 | 0.00 | 0.00 | 0.00 | 77 | 1021.1 |
| 20260902050836 | 78 | 307 | 0.0 | 0.0 | 0.00 | 0.00 | 0.00 | 78 | 1021.2 |
| 20260902050736 | 78 | 305 | 0.0 | 0.0 | 0.00 | 0.00 | 0.00 | 78 | 1021.2 |
| 20260902050637 | 78 | 283 | 0.0 | 0.0 | 0.00 | 0.00 | 0.00 | 78 | 1021.1 |
| 20260902050538 | 78 | 283 | 0.0 | 0.0 | 0.00 | 0.00 | 0.00 | 77 | 1021.1 |
| 20260902050437 | 78 | 282 | 0.0 | 0.0 | 0.00 | 0.00 | 0.00 | 77 | 1021.1 |
| 20260902050335 | 78 | 283 | 0.0 | 0.0 | 0.00 | 0.00 | 0.00 | 78 | 1021.1 |
| 20260902050234 | 78 | 283 | 0.0 | 0.0 | 0.00 | 0.00 | 0.00 | 77 | 1021.2 |
| 20260902050135 | 78 | 284 | 0.0 | 0.0 | 0.00 | 0.00 | 0.00 | 77 | 1021.1 |
| 20260902050033 | 78 | 284 | 0.0 | 0.0 | 0.00 | 0.00 | 0.00 | 77 | 1021.2 |
| 20260902045931 | 78 | 284 | 0.0 | 0.0 | 0.00 | 0.00 | 0.00 | 77 | 1021.2 |
| 20260902045830 | 78 | 284 | 0.0 | 0.0 | 0.00 | 0.00 | 0.00 | 77 | 1021.2 |
| 20260902045729 | 78 | 284 | 0.0 | 0.0 | 0.00 | 0.00 | 0.00 | 77 | 1021.1 |
| 20260902045627 | 78 | 284 | 0.0 | 0.0 | 0.00 | 0.00 | 0.00 | 77 | 1021.2 |
| 20260902045526 | 78 | 284 | 0.0 | 0.0 | 0.00 | 0.00 | 0.00 | 77 | 1021.1 |
| 20260902045425 | 78 | 284 | 0.0 | 0.0 | 0.00 | 0.00 | 0.00 | 77 | 1021.1 |
| 20260902045323 | 79 | 284 | 0.0 | 0.0 | 0.00 | 0.00 | 0.00 | 77 | 1021.1 |
| 20260902045224 | 79 | 284 | 0.0 | 0.0 | 0.00 | 0.00 | 0.00 | 77 | 1021.1 |
| 20260902045123 | 79 | 284 | 0.0 | 0.0 | 0.00 | 0.00 | 0.00 | 77 | 1021.1 |
| 20260902045022 | 79 | 284 | 0.0 | 0.0 | 0.00 | 0.00 | 0.00 | 77 | 1021.1 |
| 20260902044921 | 79 | 284 | 0.0 | 0.0 | 0.00 | 0.00 | 0.00 | 77 | 1021.1 |
| 20260902044820 | 79 | 284 | 0.0 | 0.0 | 0.00 | 0.00 | 0.00 | 77 | 1021.2 |
| 20260902044720 | 79 | 284 | 0.0 | 0.0 | 0.00 | 0.00 | 0.00 | 77 | 1021.1 |
| 20260902044617 | 79 | 283 | 0.0 | 0.0 | 0.00 | 0.00 | 0.00 | 77 | 1021.2 |
| 20260902044518 | 79 | 282 | 0.0 | 0.0 | 0.00 | 0.00 | 0.00 | 77 | 1021.2 |
| 20260902044415 | 79 | 282 | 0.0 | 0.0 | 0.00 | 0.00 | 0.00 | 77 | 1021.2 |
| 20260902044315 | 79 | 282 | 0.0 | 0.0 | 0.00 | 0.00 | 0.00 | 77 | 1021.1 |
| 20260902044213 | 79 | 282 | 0.0 | 0.0 | 0.00 | 0.00 | 0.00 | 77 | 1021.2 |
| 20260902044112 | 79 | 274 | 0.0 | 0.0 | 0.00 | 0.00 | 0.00 | 77 | 1021.2 |
| 20260902044012 | 79 | 273 | 0.0 | 0.0 | 0.00 | 0.00 | 0.00 | 77 | 1021.2 |
| 20260902043909 | 79 | 272 | 0.0 | 0.0 | 0.00 | 0.00 | 0.00 | 77 | 1021.2 |
| 20260902043803 | 79 | 272 | 0.0 | 0.0 | 0.00 | 0.00 | 0.00 | 77 | 1021.1 |
| 20260902043702 | 79 | 270 | 0.0 | 0.0 | 0.00 | 0.00 | 0.00 | 77 | 1021.2 |
| 20260902043602 | 79 | 270 | 0.0 | 0.0 | 0.00 | 0.00 | 0.00 | 77 | 1021.2 |
| 20260902043502 | 79 | 270 | 0.0 | 0.0 | 0.00 | 0.00 | 0.00 | 77 | 1021.1 |
| 20260902043358 | 79 | 270 | 0.0 | 0.0 | 0.00 | 0.00 | 0.00 | 77 | 1021.1 |
| 20260902043254 | 79 | 269 | 0.0 | 0.0 | 0.00 | 0.00 | 0.00 | 77 | 1021.1 |
| 20260902043154 | 79 | 269 | 0.0 | 0.0 | 0.00 | 0.00 | 0.00 | 77 | 1021.1 |
| 20260902043053 | 79 | 269 | 0.0 | 0.0 | 0.00 | 0.00 | 0.00 | 77 | 1021.2 |
| 20260902042952 | 79 | 269 | 0.0 | 0.0 | 0.00 | 0.00 | 0.00 | 76 | 1021.2 |
| 20260902042852 | 79 | 269 | 0.0 | 0.0 | 0.00 | 0.00 | 0.00 | 76 | 1021.1 |
| 20260902042748 | 79 | 269 | 0.0 | 0.0 | 0.00 | 0.00 | 0.00 | 76 | 1021.1 |
| 20260902042648 | 79 | 269 | 0.0 | 0.0 | 0.00 | 0.00 | 0.00 | 76 | 1021.1 |
| 20260902042546 | 79 | 269 | 0.0 | 0.0 | 0.00 | 0.00 | 0.00 | 76 | 1021.2 |
| 20260902042447 | 79 | 270 | 0.0 | 0.0 | 0.00 | 0.00 | 0.00 | 76 | 1021.2 |
| 20260902042347 | 79 | 269 | 0.0 | 0.0 | 0.00 | 0.00 | 0.00 | 76 | 1021.2 |
| 20260902042242 | 79 | 269 | 0.0 | 0.0 | 0.00 | 0.00 | 0.00 | 76 | 1021.2 |
| 20260902042141 | 79 | 269 | 0.0 | 0.0 | 0.00 | 0.00 | 0.00 | 76 | 1021.2 |
| 20260902042038 | 79 | 269 | 0.0 | 0.0 | 0.00 | 0.00 | 0.00 | 76 | 1021.2 |
| 20260902041939 | 79 | 269 | 0.0 | 0.0 | 0.00 | 0.00 | 0.00 | 76 | 1021.2 |
| 20260902041837 | 79 | 269 | 0.0 | 0.0 | 0.00 | 0.00 | 0.00 | 76 | 1021.2 |
| 20260902041736 | 79 | 269 | 0.0 | 0.0 | 0.00 | 0.00 | 0.00 | 76 | 1021.1 |
| 20260902041635 | 79 | 270 | 0.0 | 0.0 | 0.00 | 0.00 | 0.00 | 76 | 1021.3 |
| 20260902041535 | 79 | 270 | 0.0 | 0.0 | 0.00 | 0.00 | 0.00 | 76 | 1021.2 |
| 20260902041434 | 79 | 270 | 0.0 | 0.0 | 0.00 | 0.00 | 0.00 | 76 | 1021.3 |
| 20260902041331 | 79 | 270 | 0.0 | 0.0 | 0.00 | 0.00 | 0.00 | 76 | 1021.2 |
| 20260902041231 | 79 | 279 | 0.0 | 0.0 | 0.00 | 0.00 | 0.00 | 76 | 1021.2 |
| 20260902041128 | 79 | 276 | 0.0 | 0.0 | 0.00 | 0.00 | 0.00 | 76 | 1021.2 |
| 20260902041029 | 79 | 283 | 0.0 | 0.0 | 0.00 | 0.00 | 0.00 | 76 | 1021.2 |
| 20260902040927 | 79 | 283 | 0.0 | 0.0 | 0.00 | 0.00 | 0.00 | 76 | 1021.2 |
| 20260902040825 | 79 | 283 | 0.0 | 0.0 | 0.00 | 0.00 | 0.00 | 76 | 1021.2 |
| 20260902040726 | 79 | 283 | 0.0 | 0.0 | 0.00 | 0.00 | 0.00 | 76 | 1021.1 |
| 20260902040628 | 79 | 286 | 0.0 | 0.0 | 0.00 | 0.00 | 0.00 | 76 | 1021.1 |
| 20260902040526 | 79 | 286 | 0.0 | 0.0 | 0.00 | 0.00 | 0.00 | 76 | 1021.1 |
| 20260902040425 | 79 | 288 | 0.0 | 0.0 | 0.00 | 0.00 | 0.00 | 76 | 1021.1 |
| 20260902040322 | 79 | 288 | 0.0 | 0.0 | 0.00 | 0.00 | 0.00 | 76 | 1021.1 |
| 20260902040222 | 79 | 292 | 0.0 | 0.0 | 0.00 | 0.00 | 0.00 | 76 | 1021.2 |
| 20260902040123 | 79 | 291 | 0.0 | 0.0 | 0.00 | 0.00 | 0.00 | 76 | 1021.2 |
| 20260902040022 | 79 | 287 | 0.0 | 0.0 | 0.00 | 0.00 | 0.00 | 76 | 1021.2 |
| 20260902035920 | 79 | 288 | 0.0 | 0.0 | 0.00 | 0.00 | 0.00 | 76 | 1021.2 |
| 20260902035822 | 79 | 282 | 0.0 | 0.0 | 0.00 | 0.00 | 0.00 | 76 | 1021.2 |
| 20260902035721 | 79 | 282 | 0.0 | 0.0 | 0.00 | 0.00 | 0.00 | 76 | 1021.2 |
| 20260902035622 | 79 | 282 | 0.0 | 0.0 | 0.00 | 0.00 | 0.00 | 76 | 1021.2 |
| 20260902035521 | 79 | 282 | 0.0 | 0.0 | 0.00 | 0.00 | 0.00 | 76 | 1021.2 |
| 20260902035421 | 79 | 281 | 0.0 | 0.0 | 0.00 | 0.00 | 0.00 | 76 | 1021.3 |
| 20260902035320 | 79 | 281 | 0.0 | 0.0 | 0.00 | 0.00 | 0.00 | 76 | 1021.3 |
| 20260902035222 | 79 | 281 | 0.0 | 0.0 | 0.00 | 0.00 | 0.00 | 76 | 1021.3 |
| 20260902035120 | 79 | 281 | 0.0 | 0.0 | 0.00 | 0.00 | 0.00 | 76 | 1021.3 |
| 20260902035021 | 79 | 277 | 0.0 | 0.0 | 0.00 | 0.00 | 0.00 | 76 | 1021.3 |
| 20260902034922 | 79 | 276 | 0.0 | 0.0 | 0.00 | 0.00 | 0.00 | 76 | 1021.4 |
| 20260902034816 | 79 | 275 | 0.0 | 0.0 | 0.00 | 0.00 | 0.00 | 76 | 1021.2 |
| 20260902034716 | 79 | 273 | 0.0 | 0.0 | 0.00 | 0.00 | 0.00 | 76 | 1021.3 |
| 20260902034617 | 79 | 271 | 0.0 | 0.0 | 0.00 | 0.00 | 0.00 | 76 | 1021.4 |
| 20260902034516 | 79 | 271 | 0.0 | 0.0 | 0.00 | 0.00 | 0.00 | 76 | 1021.3 |
| 20260902034417 | 79 | 271 | 0.0 | 0.0 | 0.00 | 0.00 | 0.00 | 76 | 1021.2 |
| 20260902034316 | 79 | 271 | 0.0 | 0.0 | 0.00 | 0.00 | 0.00 | 76 | 1021.3 |
| 20260902034216 | 79 | 271 | 0.0 | 0.0 | 0.00 | 0.00 | 0.00 | 76 | 1021.2 |
| 20260902034117 | 79 | 269 | 0.0 | 0.0 | 0.00 | 0.00 | 0.00 | 76 | 1021.2 |
| 20260902034016 | 79 | 279 | 0.0 | 0.0 | 0.00 | 0.00 | 0.00 | 76 | 1021.2 |
| 20260902033916 | 79 | 270 | 0.0 | 0.0 | 0.00 | 0.00 | 0.00 | 76 | 1021.3 |
| 20260902033816 | 79 | 269 | 0.0 | 0.0 | 0.00 | 0.00 | 0.00 | 76 | 1021.1 |
| 20260902033716 | 79 | 269 | 0.0 | 0.0 | 0.00 | 0.00 | 0.00 | 76 | 1021.2 |
| 20260902033616 | 79 | 269 | 0.0 | 0.0 | 0.00 | 0.00 | 0.00 | 76 | 1021.2 |
| 20260902033518 | 79 | 270 | 0.0 | 0.0 | 0.00 | 0.00 | 0.00 | 76 | 1021.2 |
| 20260902033417 | 79 | 270 | 0.0 | 0.0 | 0.00 | 0.00 | 0.00 | 76 | 1021.1 |
| 20260902033318 | 79 | 270 | 0.0 | 0.0 | 0.00 | 0.00 | 0.00 | 76 | 1021.2 |
| 20260902033217 | 79 | 270 | 0.0 | 0.0 | 0.00 | 0.00 | 0.00 | 76 | 1021.2 |
| 20260902033114 | 79 | 271 | 0.0 | 0.0 | 0.00 | 0.00 | 0.00 | 76 | 1021.2 |
| 20260902033017 | 79 | 271 | 0.0 | 0.0 | 0.00 | 0.00 | 0.00 | 76 | 1021.1 |
| 20260902032915 | 79 | 271 | 0.0 | 0.0 | 0.00 | 0.00 | 0.00 | 76 | 1021.1 |
| 20260902032814 | 79 | 277 | 0.0 | 0.0 | 0.00 | 0.00 | 0.00 | 76 | 1021.3 |
| 20260902032708 | 79 | 277 | 0.0 | 0.0 | 0.00 | 0.00 | 0.00 | 76 | 1021.3 |
| 20260902032609 | 79 | 277 | 0.0 | 0.0 | 0.00 | 0.00 | 0.00 | 76 | 1021.2 |
| 20260902032509 | 79 | 259 | 0.0 | 0.0 | 0.00 | 0.00 | 0.00 | 76 | 1021.3 |
| 20260902032403 | 79 | 255 | 0.0 | 0.0 | 0.00 | 0.00 | 0.00 | 76 | 1021.3 |
| 20260902032305 | 79 | 269 | 0.0 | 0.0 | 0.00 | 0.00 | 0.00 | 76 | 1021.3 |
| 20260902032202 | 79 | 269 | 0.0 | 0.0 | 0.00 | 0.00 | 0.00 | 76 | 1021.3 |
| 20260902032102 | 79 | 269 | 0.0 | 0.0 | 0.00 | 0.00 | 0.00 | 76 | 1021.2 |
| 20260902032004 | 79 | 267 | 0.0 | 0.0 | 0.00 | 0.00 | 0.00 | 76 | 1021.2 |
| 20260902031858 | 79 | 267 | 0.0 | 0.0 | 0.00 | 0.00 | 0.00 | 76 | 1021.2 |
| 20260902031756 | 79 | 266 | 0.0 | 0.0 | 0.00 | 0.00 | 0.00 | 76 | 1021.2 |
| 20260902031657 | 79 | 267 | 0.0 | 0.0 | 0.00 | 0.00 | 0.00 | 76 | 1021.3 |
| 20260902031555 | 79 | 266 | 0.0 | 0.0 | 0.00 | 0.00 | 0.00 | 77 | 1021.2 |
| 20260902031453 | 79 | 267 | 0.0 | 0.0 | 0.00 | 0.00 | 0.00 | 77 | 1021.2 |
| 20260902031348 | 79 | 267 | 0.0 | 0.0 | 0.00 | 0.00 | 0.00 | 77 | 1021.2 |
| 20260902031247 | 79 | 267 | 0.0 | 0.0 | 0.00 | 0.00 | 0.00 | 77 | 1021.2 |
| 20260902031146 | 79 | 267 | 0.0 | 0.0 | 0.00 | 0.00 | 0.00 | 77 | 1021.2 |
| 20260902031047 | 79 | 268 | 0.0 | 0.0 | 0.00 | 0.00 | 0.00 | 76 | 1021.3 |
| 20260902030944 | 79 | 265 | 0.0 | 0.0 | 0.00 | 0.00 | 0.00 | 77 | 1021.3 |
| 20260902030845 | 79 | 264 | 0.0 | 0.0 | 0.00 | 0.00 | 0.00 | 77 | 1021.4 |
| 20260902030742 | 79 | 254 | 0.0 | 0.0 | 0.00 | 0.00 | 0.00 | 77 | 1021.4 |
| 20260902030644 | 79 | 254 | 0.0 | 0.0 | 0.00 | 0.00 | 0.00 | 77 | 1021.3 |
| 20260902030542 | 79 | 254 | 0.0 | 0.0 | 0.00 | 0.00 | 0.00 | 77 | 1021.4 |
| 20260902030439 | 79 | 254 | 0.0 | 0.0 | 0.00 | 0.00 | 0.00 | 77 | 1021.3 |
| 20260902030328 | 79 | 252 | 0.0 | 0.0 | 0.00 | 0.00 | 0.00 | 77 | 1021.3 |
| 20260902030229 | 79 | 252 | 0.0 | 0.0 | 0.00 | 0.00 | 0.00 | 77 | 1021.4 |
| 20260902030129 | 79 | 252 | 0.0 | 0.0 | 0.00 | 0.00 | 0.00 | 78 | 1021.5 |
| 20260902030029 | 79 | 226 | 0.0 | 0.0 | 0.00 | 0.00 | 0.00 | 77 | 1021.4 |
| 20260902025929 | 79 | 226 | 0.0 | 0.0 | 0.00 | 0.00 | 0.00 | 77 | 1021.4 |
| 20260902025827 | 79 | 225 | 0.0 | 0.0 | 0.00 | 0.00 | 0.00 | 77 | 1021.4 |
| 20260902025726 | 79 | 227 | 0.0 | 0.0 | 0.00 | 0.00 | 0.00 | 78 | 1021.4 |
| 20260902025626 | 79 | 281 | 0.0 | 0.0 | 0.00 | 0.00 | 0.00 | 77 | 1021.4 |
| 20260902025525 | 79 | 281 | 0.0 | 0.0 | 0.00 | 0.00 | 0.00 | 77 | 1021.4 |
| 20260902025423 | 79 | 281 | 0.0 | 0.0 | 0.00 | 0.00 | 0.00 | 77 | 1021.4 |
| 20260902025323 | 79 | 281 | 0.0 | 0.0 | 0.00 | 0.00 | 0.00 | 77 | 1021.3 |
| 20260902025220 | 79 | 269 | 0.0 | 0.0 | 0.00 | 0.00 | 0.00 | 77 | 1021.4 |
| 20260902025121 | 79 | 268 | 0.0 | 0.0 | 0.00 | 0.00 | 0.00 | 77 | 1021.4 |
| 20260902025018 | 79 | 268 | 0.0 | 0.0 | 0.00 | 0.00 | 0.00 | 77 | 1021.4 |
| 20260902024917 | 79 | 268 | 0.0 | 0.0 | 0.00 | 0.00 | 0.00 | 77 | 1021.4 |
| 20260902024807 | 80 | 268 | 0.0 | 0.0 | 0.00 | 0.00 | 0.00 | 77 | 1021.4 |
| 20260902024707 | 80 | 268 | 0.0 | 0.0 | 0.00 | 0.00 | 0.00 | 77 | 1021.4 |
| 20260902024607 | 80 | 268 | 0.0 | 0.0 | 0.00 | 0.00 | 0.00 | 77 | 1021.4 |
| 20260902024504 | 80 | 267 | 0.0 | 0.0 | 0.00 | 0.00 | 0.00 | 77 | 1021.4 |
| 20260902024405 | 79 | 259 | 0.0 | 0.0 | 0.00 | 0.00 | 0.00 | 77 | 1021.3 |
| 20260902024302 | 80 | 259 | 0.0 | 0.0 | 0.00 | 0.00 | 0.00 | 77 | 1021.3 |
| 20260902024204 | 80 | 259 | 0.0 | 0.0 | 0.00 | 0.00 | 0.00 | 77 | 1021.3 |
| 20260902024102 | 80 | 259 | 0.0 | 0.0 | 0.00 | 0.00 | 0.00 | 77 | 1021.2 |
| 20260902024001 | 80 | 259 | 0.0 | 0.0 | 0.00 | 0.00 | 0.00 | 77 | 1021.3 |
| 20260902023858 | 80 | 259 | 0.0 | 0.0 | 0.00 | 0.00 | 0.00 | 77 | 1021.3 |
| 20260902023757 | 79 | 259 | 0.0 | 0.0 | 0.00 | 0.00 | 0.00 | 77 | 1021.2 |
| 20260902023656 | 80 | 257 | 0.0 | 0.0 | 0.00 | 0.00 | 0.00 | 77 | 1021.2 |
| 20260902023555 | 80 | 257 | 0.0 | 0.0 | 0.00 | 0.00 | 0.00 | 77 | 1021.2 |
| 20260902023453 | 79 | 257 | 0.0 | 0.0 | 0.00 | 0.00 | 0.00 | 77 | 1021.3 |
| 20260902023351 | 79 | 256 | 0.0 | 0.0 | 0.00 | 0.00 | 0.00 | 77 | 1021.3 |
| 20260902023243 | 79 | 256 | 0.0 | 0.0 | 0.00 | 0.00 | 0.00 | 77 | 1021.3 |
| 20260902023140 | 79 | 252 | 0.0 | 0.0 | 0.00 | 0.00 | 0.00 | 77 | 1021.2 |
| 20260902023041 | 79 | 252 | 0.0 | 0.0 | 0.00 | 0.00 | 0.00 | 78 | 1021.3 |
| 20260902022940 | 79 | 253 | 0.0 | 0.0 | 0.00 | 0.00 | 0.00 | 78 | 1021.2 |
| 20260902022841 | 79 | 253 | 0.0 | 0.0 | 0.00 | 0.00 | 0.00 | 78 | 1021.2 |
| 20260902022738 | 79 | 253 | 0.0 | 0.0 | 0.00 | 0.00 | 0.00 | 77 | 1021.2 |
| 20260902022639 | 79 | 253 | 0.0 | 0.0 | 0.00 | 0.00 | 0.00 | 77 | 1021.2 |
| 20260902022539 | 80 | 253 | 0.0 | 0.0 | 0.00 | 0.00 | 0.00 | 78 | 1021.3 |
| 20260902022437 | 80 | 252 | 0.0 | 0.0 | 0.00 | 0.00 | 0.00 | 78 | 1021.2 |
| 20260902022335 | 79 | 252 | 0.0 | 0.0 | 0.00 | 0.00 | 0.00 | 78 | 1021.2 |
| 20260902022235 | 80 | 252 | 0.0 | 0.0 | 0.00 | 0.00 | 0.00 | 78 | 1021.2 |
| 20260902022132 | 80 | 252 | 0.0 | 0.0 | 0.00 | 0.00 | 0.00 | 77 | 1021.1 |
| 20260902022032 | 80 | 252 | 0.0 | 0.0 | 0.00 | 0.00 | 0.00 | 78 | 1021.1 |
| 20260902021931 | 80 | 252 | 0.0 | 0.0 | 0.00 | 0.00 | 0.00 | 78 | 1021.2 |
| 20260902021828 | 80 | 252 | 0.0 | 0.0 | 0.00 | 0.00 | 0.00 | 78 | 1021.1 |
| 20260902021719 | 80 | 253 | 0.0 | 0.0 | 0.00 | 0.00 | 0.00 | 77 | 1021.1 |
| 20260902021619 | 80 | 252 | 0.0 | 0.0 | 0.00 | 0.00 | 0.00 | 77 | 1021.1 |
| 20260902021518 | 80 | 253 | 0.0 | 0.0 | 0.00 | 0.00 | 0.00 | 77 | 1021.1 |
| 20260902021418 | 80 | 253 | 0.0 | 0.0 | 0.00 | 0.00 | 0.00 | 78 | 1021.1 |
| 20260902021319 | 80 | 253 | 0.0 | 0.0 | 0.00 | 0.00 | 0.00 | 77 | 1021.1 |
| 20260902021219 | 80 | 253 | 0.0 | 0.0 | 0.00 | 0.00 | 0.00 | 77 | 1021.2 |
| 20260902021117 | 80 | 252 | 0.0 | 0.0 | 0.00 | 0.00 | 0.00 | 77 | 1021.0 |
| 20260902021016 | 80 | 251 | 0.0 | 0.0 | 0.00 | 0.00 | 0.00 | 77 | 1021.0 |
| 20260902020915 | 80 | 248 | 0.0 | 0.0 | 0.00 | 0.00 | 0.00 | 77 | 1021.1 |
| 20260902020813 | 80 | 249 | 0.0 | 0.0 | 0.00 | 0.00 | 0.00 | 77 | 1021.0 |
| 20260902020706 | 80 | 249 | 0.0 | 0.0 | 0.00 | 0.00 | 0.00 | 77 | 1021.0 |
| 20260902020607 | 80 | 249 | 0.0 | 0.0 | 0.00 | 0.00 | 0.00 | 77 | 1021.0 |
| 20260902020506 | 80 | 249 | 0.0 | 0.0 | 0.00 | 0.00 | 0.00 | 77 | 1021.0 |
| 20260902020406 | 80 | 249 | 0.0 | 0.0 | 0.00 | 0.00 | 0.00 | 77 | 1021.0 |
| 20260902020306 | 80 | 249 | 0.0 | 0.0 | 0.00 | 0.00 | 0.00 | 76 | 1021.1 |
| 20260902020156 | 80 | 249 | 0.0 | 0.0 | 0.00 | 0.00 | 0.00 | 76 | 1021.0 |
| 20260902020057 | 80 | 249 | 0.0 | 0.0 | 0.00 | 0.00 | 0.00 | 76 | 1021.0 |
| 20260902015956 | 80 | 301 | 0.0 | 0.0 | 0.00 | 0.00 | 0.00 | 76 | 1021.0 |
| 20260902015856 | 80 | 301 | 0.0 | 0.0 | 0.00 | 0.00 | 0.00 | 76 | 1021.0 |
| 20260902015755 | 80 | 301 | 0.0 | 0.0 | 0.00 | 0.00 | 0.00 | 76 | 1021.0 |
| 20260902015650 | 80 | 306 | 0.0 | 0.0 | 0.00 | 0.00 | 0.00 | 75 | 1021.0 |
| 20260902015550 | 80 | 318 | 0.0 | 0.0 | 0.00 | 0.00 | 0.00 | 75 | 1020.9 |
| 20260902015448 | 80 | 329 | 0.0 | 0.0 | 0.00 | 0.00 | 0.00 | 75 | 1020.9 |
| 20260902015351 | 80 | 329 | 0.0 | 0.0 | 0.00 | 0.00 | 0.00 | 75 | 1020.9 |
| 20260902015248 | 80 | 329 | 0.0 | 0.0 | 0.00 | 0.00 | 0.00 | 75 | 1020.9 |
| 20260902015145 | 80 | 329 | 0.0 | 0.0 | 0.00 | 0.00 | 0.00 | 75 | 1020.9 |
| 20260902015042 | 80 | 329 | 0.0 | 0.0 | 0.00 | 0.00 | 0.00 | 75 | 1020.9 |
| 20260902014943 | 81 | 329 | 0.0 | 0.0 | 0.00 | 0.00 | 0.00 | 75 | 1020.9 |
| 20260902014842 | 81 | 329 | 0.0 | 0.0 | 0.00 | 0.00 | 0.00 | 75 | 1020.8 |
| 20260902014743 | 81 | 329 | 0.0 | 0.0 | 0.00 | 0.00 | 0.00 | 75 | 1020.8 |
| 20260902014634 | 81 | 329 | 0.0 | 0.0 | 0.00 | 0.00 | 0.00 | 75 | 1020.8 |
| 20260902014534 | 81 | 329 | 0.0 | 0.0 | 0.00 | 0.00 | 0.00 | 75 | 1020.7 |
| 20260902014432 | 81 | 329 | 0.0 | 0.0 | 0.00 | 0.00 | 0.00 | 75 | 1020.8 |
| 20260902014333 | 81 | 329 | 0.0 | 0.0 | 0.00 | 0.00 | 0.00 | 75 | 1020.8 |
| 20260902014233 | 81 | 329 | 0.0 | 0.0 | 0.00 | 0.00 | 0.00 | 75 | 1020.8 |
| 20260902014133 | 81 | 329 | 0.0 | 0.0 | 0.00 | 0.00 | 0.00 | 75 | 1020.7 |
| 20260902014030 | 81 | 329 | 0.0 | 0.0 | 0.00 | 0.00 | 0.00 | 75 | 1020.6 |
| 20260902013931 | 81 | 329 | 0.0 | 0.0 | 0.00 | 0.00 | 0.00 | 75 | 1020.6 |
| 20260902013828 | 81 | 329 | 0.0 | 0.0 | 0.00 | 0.00 | 0.00 | 75 | 1020.6 |
| 20260902013727 | 81 | 328 | 0.0 | 0.0 | 0.00 | 0.00 | 0.00 | 76 | 1020.7 |
| 20260902013626 | 81 | 328 | 0.0 | 0.0 | 0.00 | 0.00 | 0.00 | 76 | 1020.6 |
| 20260902013525 | 81 | 328 | 0.0 | 0.0 | 0.00 | 0.00 | 0.00 | 76 | 1020.7 |
| 20260902013424 | 81 | 328 | 0.0 | 0.0 | 0.00 | 0.00 | 0.00 | 76 | 1020.6 |
| 20260902013323 | 81 | 328 | 0.0 | 0.0 | 0.00 | 0.00 | 0.00 | 76 | 1020.7 |
| 20260902013220 | 82 | 328 | 0.0 | 0.0 | 0.00 | 0.00 | 0.00 | 76 | 1020.6 |
| 20260902013112 | 82 | 327 | 0.0 | 0.0 | 0.00 | 0.00 | 0.00 | 75 | 1020.7 |
| 20260902013011 | 82 | 327 | 0.0 | 0.0 | 0.00 | 0.00 | 0.00 | 75 | 1020.7 |
| 20260902012911 | 82 | 327 | 0.0 | 0.0 | 0.00 | 0.00 | 0.00 | 75 | 1020.6 |
| 20260902012811 | 82 | 327 | 0.0 | 0.0 | 0.00 | 0.00 | 0.00 | 75 | 1020.7 |
| 20260902012710 | 82 | 327 | 0.0 | 0.0 | 0.00 | 0.00 | 0.00 | 75 | 1020.7 |
| 20260902012605 | 82 | 327 | 0.0 | 0.0 | 0.00 | 0.00 | 0.00 | 74 | 1020.7 |
| 20260902012505 | 82 | 326 | 0.0 | 0.0 | 0.00 | 0.00 | 0.00 | 74 | 1020.7 |
| 20260902012404 | 82 | 326 | 0.0 | 0.0 | 0.00 | 0.00 | 0.00 | 74 | 1020.8 |
| 20260902012309 | 82 | 325 | 0.0 | 0.0 | 0.00 | 0.00 | 0.00 | 73 | 1020.7 |
| 20260902012205 | 82 | 324 | 0.0 | 0.0 | 0.00 | 0.00 | 0.00 | 73 | 1020.7 |
| 20260902012102 | 82 | 321 | 0.0 | 0.0 | 0.00 | 0.00 | 0.00 | 72 | 1020.6 |
| 20260902012002 | 82 | 313 | 0.0 | 0.0 | 0.00 | 0.00 | 0.00 | 72 | 1020.7 |
| 20260902011902 | 82 | 317 | 0.0 | 0.0 | 0.00 | 0.00 | 0.00 | 72 | 1020.6 |
| 20260902011801 | 82 | 319 | 0.0 | 0.0 | 0.00 | 0.00 | 0.00 | 72 | 1020.6 |
| 20260902011659 | 82 | 319 | 0.0 | 0.0 | 0.00 | 0.00 | 0.00 | 72 | 1020.6 |
| 20260902011555 | 82 | 321 | 0.0 | 0.0 | 0.00 | 0.00 | 0.00 | 71 | 1020.6 |
| 20260902011452 | 82 | 327 | 0.0 | 0.0 | 0.00 | 0.00 | 0.00 | 70 | 1020.6 |
| 20260902011353 | 82 | 329 | 0.0 | 0.0 | 0.00 | 0.00 | 0.00 | 70 | 1020.7 |
| 20260902011251 | 82 | 329 | 0.0 | 0.0 | 0.00 | 0.00 | 0.00 | 70 | 1020.6 |
| 20260902011149 | 82 | 330 | 0.0 | 0.0 | 0.00 | 0.00 | 0.00 | 70 | 1020.7 |
| 20260902011049 | 82 | 330 | 0.0 | 0.0 | 0.00 | 0.00 | 0.00 | 70 | 1020.7 |
| 20260902010947 | 82 | 330 | 0.0 | 0.0 | 0.00 | 0.00 | 0.00 | 70 | 1020.6 |
| 20260902010847 | 83 | 330 | 0.0 | 0.0 | 0.00 | 0.00 | 0.00 | 69 | 1020.5 |
| 20260902010745 | 83 | 330 | 0.0 | 0.0 | 0.00 | 0.00 | 0.00 | 69 | 1020.5 |
| 20260902010643 | 83 | 330 | 0.0 | 0.0 | 0.00 | 0.00 | 0.00 | 69 | 1020.5 |
| 20260902010542 | 83 | 330 | 0.0 | 0.0 | 0.00 | 0.00 | 0.00 | 69 | 1020.5 |
| 20260902010442 | 83 | 330 | 0.0 | 0.0 | 0.00 | 0.00 | 0.00 | 68 | 1020.6 |
| 20260902010340 | 83 | 330 | 0.0 | 0.0 | 0.00 | 0.00 | 0.00 | 68 | 1020.6 |
| 20260902010240 | 83 | 330 | 0.0 | 0.0 | 0.00 | 0.00 | 0.00 | 68 | 1020.6 |
| 20260902010137 | 83 | 330 | 0.0 | 0.0 | 0.00 | 0.00 | 0.00 | 68 | 1020.5 |
| 20260902010031 | 83 | 330 | 0.0 | 0.0 | 0.00 | 0.00 | 0.00 | 68 | 1020.5 |
| 20260902005931 | 83 | 330 | 0.0 | 0.0 | 0.00 | 0.00 | 0.00 | 68 | 1020.5 |
| 20260902005831 | 83 | 330 | 0.0 | 0.0 | 0.00 | 0.00 | 0.00 | 68 | 1020.5 |
| 20260902005730 | 83 | 330 | 0.0 | 0.0 | 0.00 | 0.00 | 0.00 | 67 | 1020.5 |
| 20260902005627 | 83 | 330 | 0.0 | 0.0 | 0.00 | 0.00 | 0.00 | 67 | 1020.5 |
| 20260902005527 | 83 | 330 | 0.0 | 0.0 | 0.00 | 0.00 | 0.00 | 67 | 1020.4 |
| 20260902005426 | 83 | 330 | 0.0 | 0.0 | 0.00 | 0.00 | 0.00 | 67 | 1020.4 |
| 20260902005325 | 83 | 330 | 0.0 | 0.0 | 0.00 | 0.00 | 0.00 | 67 | 1020.4 |
| 20260902005222 | 83 | 330 | 0.0 | 0.0 | 0.00 | 0.00 | 0.00 | 67 | 1020.5 |
| 20260902005121 | 83 | 330 | 0.0 | 0.0 | 0.00 | 0.00 | 0.00 | 66 | 1020.5 |
| 20260902005021 | 83 | 330 | 0.0 | 0.0 | 0.00 | 0.00 | 0.00 | 66 | 1020.4 |
| 20260902004919 | 83 | 330 | 0.0 | 0.0 | 0.00 | 0.00 | 0.00 | 66 | 1020.5 |
| 20260902004818 | 83 | 330 | 0.0 | 0.0 | 0.00 | 0.00 | 0.00 | 66 | 1020.4 |
| 20260902004717 | 83 | 330 | 0.0 | 0.0 | 0.00 | 0.00 | 0.00 | 66 | 1020.4 |
| 20260902004615 | 83 | 330 | 0.0 | 0.0 | 0.00 | 0.00 | 0.00 | 66 | 1020.4 |
| 20260902004508 | 83 | 330 | 0.0 | 0.0 | 0.00 | 0.00 | 0.00 | 65 | 1020.4 |
| 20260902004404 | 83 | 330 | 0.0 | 0.0 | 0.00 | 0.00 | 0.00 | 65 | 1020.4 |
| 20260902004303 | 83 | 330 | 0.0 | 0.0 | 0.00 | 0.00 | 0.00 | 66 | 1020.3 |
| 20260902004204 | 83 | 330 | 0.0 | 0.0 | 0.00 | 0.00 | 0.00 | 65 | 1020.3 |
| 20260902004104 | 83 | 330 | 0.0 | 0.0 | 0.00 | 0.00 | 0.00 | 65 | 1020.3 |
| 20260902004002 | 83 | 330 | 0.0 | 0.0 | 0.00 | 0.00 | 0.00 | 65 | 1020.3 |
| 20260902003902 | 83 | 330 | 0.0 | 0.0 | 0.00 | 0.00 | 0.00 | 65 | 1020.3 |
| 20260902003802 | 83 | 330 | 0.0 | 0.0 | 0.00 | 0.00 | 0.00 | 65 | 1020.3 |
| 20260902003701 | 83 | 330 | 0.0 | 0.0 | 0.00 | 0.00 | 0.00 | 65 | 1020.3 |
| 20260902003558 | 83 | 330 | 0.0 | 0.0 | 0.00 | 0.00 | 0.00 | 65 | 1020.3 |
| 20260902003458 | 83 | 330 | 0.0 | 0.0 | 0.00 | 0.00 | 0.00 | 65 | 1020.2 |
| 20260902003357 | 83 | 330 | 0.0 | 0.0 | 0.00 | 0.00 | 0.00 | 65 | 1020.4 |
| 20260902003256 | 83 | 330 | 0.0 | 0.0 | 0.00 | 0.00 | 0.00 | 65 | 1020.3 |
| 20260902003155 | 83 | 330 | 0.0 | 0.0 | 0.00 | 0.00 | 0.00 | 65 | 1020.3 |
| 20260902003052 | 83 | 330 | 0.0 | 0.0 | 0.00 | 0.00 | 0.00 | 65 | 1020.3 |
| 20260902002947 | 83 | 330 | 0.0 | 0.0 | 0.00 | 0.00 | 0.00 | 65 | 1020.3 |
| 20260902002847 | 83 | 330 | 0.0 | 0.0 | 0.00 | 0.00 | 0.00 | 65 | 1020.3 |
| 20260902002746 | 83 | 330 | 0.0 | 0.0 | 0.00 | 0.00 | 0.00 | 65 | 1020.3 |
| 20260902002645 | 83 | 330 | 0.0 | 0.0 | 0.00 | 0.00 | 0.00 | 65 | 1020.4 |
| 20260902002543 | 83 | 330 | 0.0 | 0.0 | 0.00 | 0.00 | 0.00 | 65 | 1020.4 |
| 20260902002444 | 83 | 330 | 0.0 | 0.0 | 0.00 | 0.00 | 0.00 | 65 | 1020.3 |
| 20260902002339 | 83 | 330 | 0.0 | 0.0 | 0.00 | 0.00 | 0.00 | 65 | 1020.3 |
| 20260902002241 | 83 | 330 | 0.0 | 0.0 | 0.00 | 0.00 | 0.00 | 65 | 1020.3 |
| 20260902002137 | 83 | 330 | 0.0 | 0.0 | 0.00 | 0.00 | 0.00 | 65 | 1020.3 |
| 20260902002037 | 83 | 330 | 0.0 | 0.0 | 0.00 | 0.00 | 0.00 | 65 | 1020.4 |
| 20260902001936 | 83 | 330 | 0.0 | 0.0 | 0.00 | 0.00 | 0.00 | 65 | 1020.3 |
| 20260902001836 | 83 | 330 | 0.0 | 0.0 | 0.00 | 0.00 | 0.00 | 65 | 1020.3 |
| 20260902001732 | 83 | 330 | 0.0 | 0.0 | 0.00 | 0.00 | 0.00 | 65 | 1020.4 |
| 20260902001633 | 83 | 330 | 0.0 | 0.0 | 0.00 | 0.00 | 0.00 | 65 | 1020.4 |
| 20260902001531 | 83 | 330 | 0.0 | 0.0 | 0.00 | 0.00 | 0.00 | 65 | 1020.5 |
| 20260902001425 | 83 | 330 | 0.0 | 0.0 | 0.00 | 0.00 | 0.00 | 65 | 1020.4 |
| 20260902001325 | 83 | 330 | 0.0 | 0.0 | 0.00 | 0.00 | 0.00 | 65 | 1020.4 |
| 20260902001225 | 83 | 330 | 0.0 | 0.0 | 0.00 | 0.00 | 0.00 | 65 | 1020.4 |
| 20260902001123 | 83 | 330 | 0.0 | 0.0 | 0.00 | 0.00 | 0.00 | 65 | 1020.4 |
| 20260902001021 | 83 | 330 | 0.0 | 0.0 | 0.00 | 0.00 | 0.00 | 65 | 1020.3 |
| 20260902000921 | 83 | 330 | 0.0 | 0.0 | 0.00 | 0.00 | 0.00 | 65 | 1020.4 |
| 20260902000819 | 84 | 330 | 0.0 | 0.0 | 0.00 | 0.00 | 0.00 | 65 | 1020.4 |
| 20260902000719 | 83 | 330 | 0.0 | 0.0 | 0.00 | 0.00 | 0.00 | 65 | 1020.4 |
| 20260902000617 | 84 | 330 | 0.0 | 0.0 | 0.00 | 0.00 | 0.00 | 65 | 1020.4 |
| 20260902000514 | 84 | 330 | 0.0 | 0.0 | 0.00 | 0.00 | 0.00 | 65 | 1020.4 |
| 20260902000409 | 84 | 330 | 0.0 | 0.0 | 0.00 | 0.00 | 0.00 | 65 | 1020.4 |
| 20260902000307 | 84 | 330 | 0.0 | 0.0 | 0.00 | 0.00 | 0.00 | 65 | 1020.4 |
| 20260902000211 | 84 | 330 | 0.0 | 0.0 | 0.00 | 0.00 | 0.00 | 65 | 1020.5 |
| 20260902000107 | 84 | 330 | 0.0 | 0.0 | 0.00 | 0.00 | 0.00 | 65 | 1020.4 |
| 20260902000009 | 84 | 330 | 0.0 | 0.0 | 0.00 | 0.00 | 0.00 | 65 | 1020.4 |
| 20260901235902 | 84 | 330 | 0.0 | 0.0 | 0.00 | 0.00 | 0.00 | 65 | 1020.5 |
| 20260901235802 | 84 | 330 | 0.0 | 0.0 | 0.00 | 0.00 | 0.00 | 65 | 1020.4 |
| 20260901235703 | 84 | 330 | 0.0 | 0.0 | 0.00 | 0.00 | 0.00 | 65 | 1020.4 |
| 20260901235601 | 84 | 330 | 0.0 | 0.0 | 0.00 | 0.00 | 0.00 | 65 | 1020.5 |
| 20260901235459 | 84 | 330 | 0.0 | 0.0 | 0.00 | 0.00 | 0.00 | 65 | 1020.4 |
| 20260901235358 | 84 | 330 | 0.0 | 0.0 | 0.00 | 0.00 | 0.00 | 65 | 1020.4 |
| 20260901235258 | 84 | 330 | 0.0 | 0.0 | 0.00 | 0.00 | 0.00 | 65 | 1020.6 |
| 20260901235156 | 84 | 330 | 0.0 | 0.0 | 0.00 | 0.00 | 0.00 | 65 | 1020.5 |
| 20260901235054 | 84 | 330 | 0.0 | 0.0 | 0.00 | 0.00 | 0.00 | 65 | 1020.5 |
| 20260901234952 | 84 | 330 | 0.0 | 0.0 | 0.00 | 0.00 | 0.00 | 65 | 1020.5 |
| 20260901234852 | 84 | 330 | 0.0 | 0.0 | 0.00 | 0.00 | 0.00 | 65 | 1020.5 |
| 20260901234751 | 84 | 330 | 0.0 | 0.0 | 0.00 | 0.00 | 0.00 | 65 | 1020.5 |
| 20260901234647 | 84 | 330 | 0.0 | 0.0 | 0.00 | 0.00 | 0.00 | 65 | 1020.5 |
| 20260901234549 | 84 | 330 | 0.0 | 0.0 | 0.00 | 0.00 | 0.00 | 65 | 1020.5 |
| 20260901234447 | 84 | 330 | 0.0 | 0.0 | 0.00 | 0.00 | 0.00 | 65 | 1020.4 |
| 20260901234339 | 84 | 330 | 0.0 | 0.0 | 0.00 | 0.00 | 0.00 | 65 | 1020.5 |
| 20260901234241 | 84 | 330 | 0.0 | 0.0 | 0.00 | 0.00 | 0.00 | 65 | 1020.5 |
| 20260901234140 | 84 | 330 | 0.0 | 0.0 | 0.00 | 0.00 | 0.00 | 65 | 1020.5 |
| 20260901234039 | 85 | 330 | 0.0 | 0.0 | 0.00 | 0.00 | 0.00 | 65 | 1020.4 |
| 20260901233937 | 85 | 330 | 0.0 | 0.0 | 0.00 | 0.00 | 0.00 | 65 | 1020.5 |
| 20260901233832 | 85 | 330 | 0.0 | 0.0 | 0.00 | 0.00 | 0.00 | 65 | 1020.4 |
| 20260901233732 | 85 | 330 | 0.0 | 0.0 | 0.00 | 0.00 | 0.00 | 65 | 1020.5 |
| 20260901233633 | 85 | 330 | 0.0 | 0.0 | 0.00 | 0.00 | 0.00 | 65 | 1020.4 |
| 20260901233533 | 85 | 330 | 0.0 | 0.0 | 0.00 | 0.00 | 0.00 | 65 | 1020.5 |
| 20260901233430 | 85 | 330 | 0.0 | 0.0 | 0.00 | 0.00 | 0.00 | 66 | 1020.5 |
| 20260901233330 | 85 | 330 | 0.0 | 0.0 | 0.00 | 0.00 | 0.00 | 65 | 1020.5 |
| 20260901233230 | 85 | 330 | 0.0 | 0.0 | 0.00 | 0.00 | 0.00 | 65 | 1020.5 |
| 20260901233126 | 85 | 330 | 0.0 | 0.0 | 0.00 | 0.00 | 0.00 | 65 | 1020.5 |
| 20260901233026 | 85 | 330 | 0.0 | 0.0 | 0.00 | 0.00 | 0.00 | 65 | 1020.5 |
| 20260901232924 | 85 | 330 | 0.0 | 0.0 | 0.00 | 0.00 | 0.00 | 65 | 1020.5 |
| 20260901232818 | 85 | 330 | 0.0 | 0.0 | 0.00 | 0.00 | 0.00 | 65 | 1020.5 |
| 20260901232719 | 85 | 330 | 0.0 | 0.0 | 0.00 | 0.00 | 0.00 | 65 | 1020.5 |
| 20260901232618 | 85 | 330 | 0.0 | 0.0 | 0.00 | 0.00 | 0.00 | 65 | 1020.5 |
| 20260901232517 | 85 | 330 | 0.0 | 0.0 | 0.00 | 0.00 | 0.00 | 65 | 1020.5 |
| 20260901232414 | 85 | 330 | 0.0 | 0.0 | 0.00 | 0.00 | 0.00 | 65 | 1020.5 |
| 20260901232314 | 85 | 330 | 0.0 | 0.0 | 0.00 | 0.00 | 0.00 | 65 | 1020.6 |
| 20260901232213 | 85 | 330 | 0.0 | 0.0 | 0.00 | 0.00 | 0.00 | 65 | 1020.5 |
| 20260901232112 | 85 | 330 | 0.0 | 0.0 | 0.00 | 0.00 | 0.00 | 65 | 1020.6 |
| 20260901232011 | 85 | 330 | 0.0 | 0.0 | 0.00 | 0.00 | 0.00 | 65 | 1020.6 |
| 20260901231909 | 85 | 330 | 0.0 | 0.0 | 0.00 | 0.00 | 0.00 | 65 | 1020.7 |
| 20260901231804 | 85 | 330 | 0.0 | 0.0 | 0.00 | 0.00 | 0.00 | 65 | 1020.6 |
| 20260901231702 | 85 | 330 | 0.0 | 0.0 | 0.00 | 0.00 | 0.00 | 65 | 1020.7 |
| 20260901231604 | 85 | 330 | 0.0 | 0.0 | 0.00 | 0.00 | 0.00 | 65 | 1020.6 |
| 20260901231502 | 85 | 330 | 0.0 | 0.0 | 0.00 | 0.00 | 0.00 | 65 | 1020.7 |
| 20260901231402 | 85 | 330 | 0.0 | 0.0 | 0.00 | 0.00 | 0.00 | 65 | 1020.7 |
| 20260901231255 | 85 | 330 | 0.0 | 0.0 | 0.00 | 0.00 | 0.00 | 65 | 1020.8 |
| 20260901231156 | 85 | 330 | 0.0 | 0.0 | 0.00 | 0.00 | 0.00 | 65 | 1020.8 |
| 20260901231056 | 85 | 330 | 0.0 | 0.0 | 0.00 | 0.00 | 0.00 | 65 | 1020.8 |
| 20260901230955 | 85 | 330 | 0.0 | 0.0 | 0.00 | 0.00 | 0.00 | 65 | 1020.7 |
| 20260901230853 | 85 | 330 | 0.0 | 0.0 | 0.00 | 0.00 | 0.00 | 65 | 1020.8 |
| 20260901230752 | 85 | 330 | 0.0 | 0.0 | 0.00 | 0.00 | 0.00 | 64 | 1020.8 |
| 20260901230651 | 86 | 330 | 0.0 | 0.0 | 0.00 | 0.00 | 0.00 | 64 | 1020.9 |
| 20260901230550 | 86 | 330 | 0.0 | 0.0 | 0.00 | 0.00 | 0.00 | 64 | 1020.8 |
| 20260901230448 | 86 | 330 | 0.0 | 0.0 | 0.00 | 0.00 | 0.00 | 64 | 1020.8 |
| 20260901230348 | 86 | 330 | 0.0 | 0.0 | 0.00 | 0.00 | 0.00 | 64 | 1020.8 |
| 20260901230245 | 86 | 330 | 0.0 | 0.0 | 0.00 | 0.00 | 0.00 | 64 | 1020.9 |
| 20260901230145 | 86 | 330 | 0.0 | 0.0 | 0.00 | 0.00 | 0.00 | 64 | 1020.9 |
| 20260901230042 | 86 | 330 | 0.0 | 0.0 | 0.00 | 0.00 | 0.00 | 64 | 1020.9 |
| 20260901225943 | 86 | 330 | 0.0 | 0.0 | 0.00 | 0.00 | 0.00 | 64 | 1020.9 |
| 20260901225840 | 86 | 330 | 0.0 | 0.0 | 0.00 | 0.00 | 0.00 | 64 | 1020.9 |
| 20260901225735 | 86 | 330 | 0.0 | 0.0 | 0.00 | 0.00 | 0.00 | 63 | 1020.9 |
| 20260901225634 | 86 | 330 | 0.0 | 0.0 | 0.00 | 0.00 | 0.00 | 63 | 1020.9 |
| 20260901225535 | 86 | 330 | 0.0 | 0.0 | 0.00 | 0.00 | 0.00 | 63 | 1020.8 |
| 20260901225432 | 86 | 330 | 0.0 | 0.0 | 0.00 | 0.00 | 0.00 | 63 | 1020.8 |
| 20260901225331 | 86 | 330 | 0.0 | 0.0 | 0.00 | 0.00 | 0.00 | 64 | 1020.7 |
| 20260901225231 | 86 | 330 | 0.0 | 0.0 | 0.00 | 0.00 | 0.00 | 63 | 1020.8 |
| 20260901225129 | 86 | 330 | 0.0 | 0.0 | 0.00 | 0.00 | 0.00 | 63 | 1020.7 |
| 20260901225029 | 86 | 330 | 0.0 | 0.0 | 0.00 | 0.00 | 0.00 | 63 | 1020.7 |
| 20260901224927 | 86 | 330 | 0.0 | 0.0 | 0.00 | 0.00 | 0.00 | 64 | 1020.6 |
| 20260901224825 | 86 | 330 | 0.0 | 0.0 | 0.00 | 0.00 | 0.00 | 64 | 1020.7 |
| 20260901224725 | 86 | 330 | 0.0 | 0.0 | 0.00 | 0.00 | 0.00 | 64 | 1020.7 |
| 20260901224622 | 86 | 330 | 0.0 | 0.0 | 0.00 | 0.00 | 0.00 | 64 | 1020.7 |
| 20260901224521 | 86 | 330 | 0.0 | 0.0 | 0.00 | 0.00 | 0.00 | 64 | 1020.7 |
| 20260901224421 | 86 | 330 | 0.0 | 0.0 | 0.00 | 0.00 | 0.00 | 64 | 1020.6 |
| 20260901224318 | 86 | 330 | 0.0 | 0.0 | 0.00 | 0.00 | 0.00 | 64 | 1020.6 |
| 20260901224209 | 86 | 330 | 0.0 | 0.0 | 0.00 | 0.00 | 0.00 | 64 | 1020.6 |
| 20260901224107 | 86 | 330 | 0.0 | 0.0 | 0.00 | 0.00 | 0.00 | 65 | 1020.7 |
| 20260901224008 | 86 | 330 | 0.0 | 0.0 | 0.00 | 0.00 | 0.00 | 65 | 1020.7 |
| 20260901223907 | 86 | 330 | 0.0 | 0.0 | 0.00 | 0.00 | 0.00 | 65 | 1020.7 |
| 20260901223809 | 87 | 330 | 0.0 | 0.0 | 0.00 | 0.00 | 0.00 | 65 | 1020.5 |
| 20260901223705 | 87 | 330 | 0.0 | 0.0 | 0.00 | 0.00 | 0.00 | 63 | 1020.6 |
| 20260901223601 | 87 | 330 | 0.0 | 0.0 | 0.00 | 0.00 | 0.00 | 63 | 1020.6 |
| 20260901223503 | 87 | 330 | 0.0 | 0.0 | 0.00 | 0.00 | 0.00 | 63 | 1020.6 |
| 20260901223403 | 87 | 330 | 0.0 | 0.0 | 0.00 | 0.00 | 0.00 | 62 | 1020.7 |
| 20260901223303 | 87 | 330 | 0.0 | 0.0 | 0.00 | 0.00 | 0.00 | 63 | 1020.6 |
| 20260901223200 | 87 | 330 | 0.0 | 0.0 | 0.00 | 0.00 | 0.00 | 63 | 1020.7 |
| 20260901223101 | 87 | 330 | 0.0 | 0.0 | 0.00 | 0.00 | 0.00 | 63 | 1020.6 |
| 20260901222957 | 87 | 330 | 0.0 | 0.0 | 0.00 | 0.00 | 0.00 | 63 | 1020.6 |
| 20260901222859 | 87 | 330 | 0.0 | 0.0 | 0.00 | 0.00 | 0.00 | 64 | 1020.7 |
| 20260901222757 | 87 | 330 | 0.0 | 0.0 | 0.00 | 0.00 | 0.00 | 63 | 1020.6 |
| 20260901222650 | 87 | 330 | 0.0 | 0.0 | 0.00 | 0.00 | 0.00 | 63 | 1020.6 |
| 20260901222550 | 87 | 330 | 0.0 | 0.0 | 0.00 | 0.00 | 0.00 | 65 | 1020.6 |
| 20260901222451 | 87 | 330 | 0.0 | 0.0 | 0.00 | 0.00 | 0.00 | 64 | 1020.7 |
| 20260901222349 | 87 | 330 | 0.0 | 0.0 | 0.00 | 0.00 | 0.00 | 63 | 1020.6 |
| 20260901222246 | 87 | 330 | 0.0 | 0.0 | 0.00 | 0.00 | 0.00 | 63 | 1020.6 |
| 20260901222142 | 87 | 330 | 0.0 | 0.0 | 0.00 | 0.00 | 0.00 | 62 | 1020.6 |
| 20260901222041 | 87 | 330 | 0.0 | 0.0 | 0.00 | 0.00 | 0.00 | 62 | 1020.6 |
| 20260901221940 | 87 | 330 | 0.0 | 0.0 | 0.00 | 0.00 | 0.00 | 62 | 1020.6 |
| 20260901221841 | 87 | 330 | 0.0 | 0.0 | 0.00 | 0.00 | 0.00 | 62 | 1020.6 |
| 20260901221740 | 87 | 330 | 0.0 | 0.0 | 0.00 | 0.00 | 0.00 | 62 | 1020.6 |
| 20260901221637 | 88 | 330 | 0.0 | 0.0 | 0.00 | 0.00 | 0.00 | 62 | 1020.5 |
| 20260901221539 | 88 | 330 | 0.0 | 0.0 | 0.00 | 0.00 | 0.00 | 62 | 1020.5 |
| 20260901221438 | 88 | 330 | 0.0 | 0.0 | 0.00 | 0.00 | 0.00 | 61 | 1020.5 |
| 20260901221336 | 88 | 330 | 0.0 | 0.0 | 0.00 | 0.00 | 0.00 | 62 | 1020.6 |
| 20260901221234 | 88 | 330 | 0.0 | 0.0 | 0.00 | 0.00 | 0.00 | 63 | 1020.6 |
| 20260901221126 | 88 | 330 | 0.0 | 0.0 | 0.00 | 0.00 | 0.00 | 63 | 1020.6 |
| 20260901221023 | 88 | 330 | 0.0 | 0.0 | 0.00 | 0.00 | 0.00 | 62 | 1020.6 |
| 20260901220924 | 88 | 330 | 0.0 | 0.0 | 0.00 | 0.00 | 0.00 | 64 | 1020.5 |
| 20260901220824 | 88 | 330 | 0.0 | 0.0 | 0.00 | 0.00 | 0.00 | 62 | 1020.5 |
| 20260901220725 | 88 | 330 | 0.0 | 0.0 | 0.00 | 0.00 | 0.00 | 62 | 1020.6 |
| 20260901220622 | 88 | 330 | 0.0 | 0.0 | 0.00 | 0.00 | 0.00 | 63 | 1020.5 |
| 20260901220522 | 88 | 330 | 0.0 | 0.0 | 0.00 | 0.00 | 0.00 | 61 | 1020.6 |
| 20260901220419 | 88 | 330 | 0.0 | 0.0 | 0.00 | 0.00 | 0.00 | 61 | 1020.5 |
| 20260901220321 | 88 | 330 | 0.0 | 0.0 | 0.00 | 0.00 | 0.00 | 61 | 1020.5 |
| 20260901220218 | 88 | 330 | 0.0 | 0.0 | 0.00 | 0.00 | 0.00 | 60 | 1020.5 |
| 20260901220119 | 88 | 330 | 0.0 | 0.0 | 0.00 | 0.00 | 0.00 | 60 | 1020.5 |
| 20260901220016 | 88 | 330 | 0.0 | 0.0 | 0.00 | 0.00 | 0.00 | 62 | 1020.4 |
| 20260901215916 | 89 | 330 | 0.0 | 0.0 | 0.00 | 0.00 | 0.00 | 60 | 1020.5 |
| 20260901215816 | 89 | 330 | 0.0 | 0.0 | 0.00 | 0.00 | 0.00 | 60 | 1020.5 |
| 20260901215716 | 89 | 330 | 0.0 | 0.0 | 0.00 | 0.00 | 0.00 | 60 | 1020.6 |
| 20260901215615 | 88 | 330 | 0.0 | 0.0 | 0.00 | 0.00 | 0.00 | 60 | 1020.6 |
| 20260901215515 | 89 | 330 | 0.0 | 0.0 | 0.00 | 0.00 | 0.00 | 60 | 1020.6 |
| 20260901215414 | 89 | 330 | 0.0 | 0.0 | 0.00 | 0.00 | 0.00 | 63 | 1020.6 |
| 20260901215315 | 89 | 330 | 0.0 | 0.0 | 0.00 | 0.00 | 0.00 | 61 | 1020.5 |
| 20260901215215 | 89 | 330 | 0.0 | 0.0 | 0.00 | 0.00 | 0.00 | 60 | 1020.6 |
| 20260901215114 | 89 | 330 | 0.0 | 0.0 | 0.00 | 0.00 | 0.00 | 62 | 1020.6 |
| 20260901215012 | 89 | 330 | 0.0 | 0.0 | 0.00 | 0.00 | 0.00 | 61 | 1020.6 |
| 20260901214912 | 89 | 330 | 0.0 | 0.0 | 0.00 | 0.00 | 0.00 | 62 | 1020.6 |
| 20260901214811 | 89 | 330 | 0.0 | 0.0 | 0.00 | 0.00 | 0.00 | 63 | 1020.6 |
| 20260901214708 | 89 | 330 | 0.0 | 0.0 | 0.00 | 0.00 | 0.00 | 62 | 1020.6 |
| 20260901214608 | 89 | 330 | 0.0 | 0.0 | 0.00 | 0.00 | 0.00 | 62 | 1020.5 |
| 20260901214507 | 89 | 330 | 0.0 | 0.0 | 0.00 | 0.00 | 0.00 | 63 | 1020.5 |
| 20260901214403 | 89 | 330 | 0.0 | 0.0 | 0.00 | 0.00 | 0.00 | 61 | 1020.5 |
| 20260901214305 | 89 | 330 | 0.0 | 0.0 | 0.00 | 0.00 | 0.00 | 63 | 1020.5 |
| 20260901214203 | 89 | 330 | 0.0 | 0.0 | 0.00 | 0.00 | 0.00 | 61 | 1020.6 |
| 20260901214105 | 88 | 330 | 0.0 | 0.0 | 0.00 | 0.00 | 0.00 | 60 | 1020.5 |
| 20260901214005 | 88 | 330 | 0.0 | 0.0 | 0.00 | 0.00 | 0.00 | 60 | 1020.5 |
| 20260901213859 | 88 | 329 | 0.0 | 0.0 | 0.00 | 0.00 | 0.00 | 61 | 1020.5 |
| 20260901213757 | 88 | 329 | 0.0 | 0.0 | 0.00 | 0.00 | 0.00 | 61 | 1020.5 |
| 20260901213657 | 88 | 329 | 0.0 | 0.0 | 0.00 | 0.00 | 0.00 | 63 | 1020.5 |
| 20260901213559 | 88 | 329 | 0.0 | 0.0 | 0.00 | 0.00 | 0.00 | 63 | 1020.5 |
| 20260901213458 | 88 | 329 | 0.0 | 0.0 | 0.00 | 0.00 | 0.00 | 61 | 1020.5 |
| 20260901213353 | 88 | 329 | 0.0 | 0.0 | 0.00 | 0.00 | 0.00 | 61 | 1020.5 |
| 20260901213252 | 88 | 329 | 0.0 | 0.0 | 0.00 | 0.00 | 0.00 | 61 | 1020.5 |
| 20260901213151 | 88 | 329 | 0.0 | 0.0 | 0.00 | 0.00 | 0.00 | 61 | 1020.5 |
| 20260901213052 | 88 | 329 | 0.0 | 0.0 | 0.00 | 0.00 | 0.00 | 61 | 1020.6 |
| 20260901212953 | 88 | 329 | 0.0 | 0.0 | 0.00 | 0.00 | 0.00 | 63 | 1020.6 |
| 20260901212845 | 88 | 329 | 0.0 | 0.0 | 0.00 | 0.00 | 0.00 | 63 | 1020.6 |
| 20260901212746 | 88 | 329 | 0.0 | 0.0 | 0.00 | 0.00 | 0.00 | 62 | 1020.6 |
| 20260901212647 | 88 | 329 | 0.0 | 0.0 | 0.00 | 0.00 | 0.00 | 61 | 1020.6 |
| 20260901212546 | 88 | 321 | 0.0 | 0.0 | 0.00 | 0.00 | 0.00 | 61 | 1020.7 |
| 20260901212446 | 88 | 313 | 0.0 | 0.0 | 0.00 | 0.00 | 0.00 | 62 | 1020.6 |
| 20260901212347 | 88 | 290 | 0.0 | 0.0 | 0.00 | 0.00 | 0.00 | 61 | 1020.6 |
| 20260901212244 | 88 | 290 | 0.0 | 0.0 | 0.00 | 0.00 | 0.00 | 63 | 1020.7 |
| 20260901212143 | 88 | 290 | 0.0 | 0.0 | 0.00 | 0.00 | 0.00 | 62 | 1020.6 |
| 20260901212042 | 88 | 290 | 0.0 | 0.0 | 0.00 | 0.00 | 0.00 | 61 | 1020.7 |
| 20260901211943 | 88 | 288 | 0.0 | 0.0 | 0.00 | 0.00 | 0.00 | 62 | 1020.7 |
| 20260901211839 | 88 | 285 | 0.0 | 0.0 | 0.00 | 0.00 | 0.00 | 63 | 1020.7 |
| 20260901211739 | 88 | 13 | 0.0 | 0.0 | 0.00 | 0.00 | 0.00 | 63 | 1020.7 |
| 20260901211636 | 88 | 13 | 0.0 | 0.0 | 0.00 | 0.00 | 0.00 | 62 | 1020.7 |
| 20260901211537 | 88 | 13 | 0.0 | 0.0 | 0.00 | 0.00 | 0.00 | 63 | 1020.8 |
| 20260901211436 | 88 | 13 | 0.0 | 0.0 | 0.00 | 0.00 | 0.00 | 62 | 1020.7 |
| 20260901211335 | 88 | 13 | 0.0 | 0.0 | 0.00 | 0.00 | 0.00 | 62 | 1020.8 |
| 20260901211232 | 88 | 12 | 0.0 | 0.0 | 0.00 | 0.00 | 0.00 | 62 | 1020.7 |
| 20260901211130 | 87 | 13 | 0.0 | 0.0 | 0.00 | 0.00 | 0.00 | 63 | 1020.8 |
| 20260901211030 | 88 | 9 | 0.0 | 0.0 | 0.00 | 0.00 | 0.00 | 62 | 1020.8 |
| 20260901210930 | 88 | 10 | 0.0 | 0.0 | 0.00 | 0.00 | 0.00 | 64 | 1020.8 |
| 20260901210831 | 87 | 40 | 0.0 | 3.5 | 0.00 | 0.00 | 0.00 | 62 | 1020.8 |
| 20260901210731 | 88 | 40 | 0.0 | 3.5 | 0.00 | 0.00 | 0.00 | 62 | 1020.8 |
| 20260901210630 | 88 | 42 | 0.0 | 3.5 | 0.00 | 0.00 | 0.00 | 63 | 1020.8 |
| 20260901210529 | 88 | 335 | 0.0 | 3.5 | 0.00 | 0.00 | 0.00 | 64 | 1020.8 |
| 20260901210429 | 88 | 334 | 0.0 | 3.5 | 0.00 | 0.00 | 0.00 | 65 | 1020.8 |
| 20260901210326 | 87 | 334 | 0.0 | 3.5 | 0.00 | 0.00 | 0.00 | 62 | 1020.8 |
| 20260901210225 | 87 | 334 | 0.0 | 3.5 | 0.00 | 0.00 | 0.00 | 61 | 1020.8 |
| 20260901210125 | 87 | 334 | 0.0 | 3.5 | 0.00 | 0.00 | 0.00 | 62 | 1020.8 |
| 20260901210022 | 87 | 334 | 0.0 | 3.5 | 0.00 | 0.00 | 0.00 | 63 | 1020.8 |
| 20260901205923 | 87 | 341 | 0.0 | 3.5 | 0.00 | 0.00 | 0.00 | 62 | 1020.8 |
| 20260901205821 | 87 | 333 | 0.0 | 3.5 | 0.00 | 0.00 | 0.00 | 62 | 1020.9 |
| 20260901205719 | 87 | 330 | 0.0 | 1.7 | 0.00 | 0.00 | 0.00 | 63 | 1020.8 |
| 20260901205616 | 87 | 336 | 0.0 | 0.0 | 0.00 | 0.00 | 0.00 | 62 | 1020.8 |
| 20260901205516 | 88 | 344 | 0.0 | 0.0 | 0.00 | 0.00 | 0.00 | 63 | 1020.9 |
| 20260901205417 | 88 | 328 | 0.0 | 0.0 | 0.00 | 0.00 | 0.00 | 63 | 1020.9 |
| 20260901205316 | 88 | 25 | 0.0 | 0.0 | 0.00 | 0.00 | 0.00 | 62 | 1020.8 |
| 20260901205217 | 88 | 25 | 0.0 | 0.0 | 0.00 | 0.00 | 0.00 | 65 | 1020.9 |
| 20260901205112 | 88 | 355 | 0.0 | 0.0 | 0.00 | 0.00 | 0.00 | 63 | 1021.0 |
| 20260901205010 | 88 | 0 | 0.0 | 0.0 | 0.00 | 0.00 | 0.00 | 64 | 1020.9 |
| 20260901204911 | 88 | 5 | 0.0 | 0.0 | 0.00 | 0.00 | 0.00 | 66 | 1020.9 |
| 20260901204811 | 88 | 331 | 0.0 | 0.0 | 0.00 | 0.00 | 0.00 | 64 | 1020.9 |
| 20260901204710 | 88 | 355 | 0.0 | 0.0 | 0.00 | 0.00 | 0.00 | 65 | 1020.9 |
| 20260901204605 | 88 | 355 | 0.0 | 0.0 | 0.00 | 0.00 | 0.00 | 62 | 1020.8 |
| 20260901204504 | 88 | 355 | 0.0 | 0.0 | 0.00 | 0.00 | 0.00 | 64 | 1021.0 |
| 20260901204404 | 88 | 336 | 0.0 | 0.0 | 0.00 | 0.00 | 0.00 | 64 | 1020.9 |
| 20260901204304 | 88 | 23 | 0.0 | 0.0 | 0.00 | 0.00 | 0.00 | 64 | 1020.9 |
| 20260901204205 | 88 | 25 | 0.0 | 0.0 | 0.00 | 0.00 | 0.00 | 64 | 1020.9 |
| 20260901204104 | 88 | 26 | 0.0 | 2.6 | 0.00 | 0.00 | 0.00 | 63 | 1021.0 |
| 20260901204001 | 88 | 25 | 0.0 | 2.6 | 0.00 | 0.00 | 0.00 | 63 | 1020.9 |
| 20260901203902 | 87 | 315 | 0.0 | 2.6 | 0.00 | 0.00 | 0.00 | 62 | 1020.9 |
| 20260901203801 | 87 | 315 | 0.0 | 2.6 | 0.00 | 0.00 | 0.00 | 63 | 1020.9 |
| 20260901203702 | 87 | 348 | 0.0 | 2.6 | 0.00 | 0.00 | 0.00 | 64 | 1021.0 |
| 20260901203603 | 87 | 348 | 0.0 | 2.6 | 0.00 | 0.00 | 0.00 | 63 | 1020.9 |
| 20260901203500 | 87 | 349 | 0.0 | 2.6 | 0.00 | 0.00 | 0.00 | 64 | 1021.0 |
| 20260901203400 | 87 | 343 | 0.0 | 2.6 | 0.00 | 0.00 | 0.00 | 63 | 1020.9 |
| 20260901203258 | 87 | 343 | 0.0 | 2.6 | 0.00 | 0.00 | 0.00 | 64 | 1021.0 |
| 20260901203157 | 87 | 355 | 0.0 | 2.6 | 0.00 | 0.00 | 0.00 | 65 | 1021.0 |
| 20260901203058 | 87 | 296 | 0.0 | 1.7 | 0.00 | 0.00 | 0.00 | 63 | 1021.0 |
| 20260901202959 | 87 | 321 | 0.0 | 1.7 | 0.00 | 0.00 | 0.00 | 63 | 1021.0 |
| 20260901202857 | 87 | 331 | 0.0 | 1.7 | 0.00 | 0.00 | 0.00 | 65 | 1020.9 |
| 20260901202757 | 87 | 325 | 0.0 | 0.9 | 0.00 | 0.00 | 0.00 | 65 | 1021.0 |
| 20260901202656 | 87 | 355 | 0.0 | 0.0 | 0.00 | 0.00 | 0.00 | 64 | 1021.0 |
| 20260901202556 | 87 | 355 | 0.0 | 0.0 | 0.00 | 0.00 | 0.00 | 63 | 1020.9 |
| 20260901202456 | 87 | 355 | 0.0 | 0.0 | 0.00 | 0.00 | 0.00 | 66 | 1021.0 |
| 20260901202351 | 87 | 32 | 0.0 | 0.0 | 0.00 | 0.00 | 0.00 | 63 | 1021.0 |
| 20260901202251 | 87 | 23 | 0.0 | 0.0 | 0.00 | 0.00 | 0.00 | 65 | 1020.9 |
| 20260901202149 | 87 | 23 | 0.0 | 0.0 | 0.00 | 0.00 | 0.00 | 62 | 1021.0 |
| 20260901202050 | 87 | 23 | 0.0 | 0.0 | 0.00 | 0.00 | 0.00 | 66 | 1021.0 |
| 20260901201950 | 87 | 36 | 0.0 | 0.9 | 0.00 | 0.00 | 0.00 | 66 | 1020.9 |
| 20260901201851 | 87 | 31 | 0.0 | 0.9 | 0.00 | 0.00 | 0.00 | 64 | 1020.9 |
| 20260901201749 | 87 | 30 | 0.0 | 0.9 | 0.00 | 0.00 | 0.00 | 64 | 1020.9 |
| 20260901201647 | 87 | 30 | 0.0 | 0.9 | 0.00 | 0.00 | 0.00 | 64 | 1020.9 |
| 20260901201547 | 87 | 22 | 0.0 | 0.9 | 0.00 | 0.00 | 0.00 | 66 | 1021.0 |
| 20260901201444 | 87 | 38 | 0.0 | 0.9 | 0.00 | 0.00 | 0.00 | 64 | 1021.0 |
| 20260901201337 | 87 | 9 | 0.0 | 1.7 | 0.00 | 0.00 | 0.00 | 65 | 1020.9 |
| 20260901201239 | 87 | 9 | 0.0 | 1.7 | 0.00 | 0.00 | 0.00 | 65 | 1020.9 |
| 20260901201135 | 87 | 11 | 0.0 | 1.7 | 0.00 | 0.00 | 0.00 | 66 | 1021.0 |
| 20260901201035 | 87 | 319 | 0.0 | 1.7 | 0.00 | 0.00 | 0.00 | 65 | 1021.0 |
| 20260901200935 | 87 | 9 | 0.0 | 1.7 | 0.00 | 0.00 | 0.00 | 64 | 1021.0 |
| 20260901200836 | 87 | 9 | 0.0 | 1.7 | 0.00 | 0.00 | 0.00 | 65 | 1021.0 |
| 20260901200735 | 87 | 5 | 0.0 | 3.5 | 0.00 | 0.00 | 0.00 | 63 | 1021.1 |
| 20260901200636 | 88 | 5 | 0.0 | 3.5 | 0.00 | 0.00 | 0.00 | 66 | 1021.0 |
| 20260901200535 | 88 | 344 | 0.0 | 3.5 | 0.00 | 0.00 | 0.00 | 65 | 1021.1 |
| 20260901200431 | 88 | 343 | 0.0 | 3.5 | 0.00 | 0.00 | 0.00 | 64 | 1021.1 |
| 20260901200332 | 88 | 355 | 0.0 | 4.3 | 0.00 | 0.00 | 0.00 | 65 | 1021.1 |
| 20260901200231 | 88 | 355 | 0.0 | 4.3 | 0.00 | 0.00 | 0.00 | 63 | 1021.1 |
| 20260901200132 | 88 | 344 | 0.0 | 4.3 | 0.00 | 0.00 | 0.00 | 64 | 1021.0 |
| 20260901200031 | 88 | 345 | 0.9 | 4.3 | 0.00 | 0.00 | 0.00 | 64 | 1021.1 |
| 20260901195932 | 88 | 355 | 0.9 | 4.3 | 0.00 | 0.00 | 0.00 | 63 | 1021.1 |
| 20260901195831 | 88 | 346 | 0.9 | 4.3 | 0.00 | 0.00 | 0.00 | 65 | 1021.2 |
| 20260901195732 | 88 | 317 | 0.9 | 4.3 | 0.00 | 0.00 | 0.00 | 64 | 1021.2 |
| 20260901195633 | 88 | 25 | 0.9 | 4.3 | 0.00 | 0.00 | 0.00 | 64 | 1021.2 |
| 20260901195529 | 88 | 24 | 0.9 | 4.3 | 0.00 | 0.00 | 0.00 | 67 | 1021.2 |
| 20260901195429 | 88 | 322 | 0.9 | 4.3 | 0.00 | 0.00 | 0.00 | 66 | 1021.2 |
| 20260901195330 | 88 | 5 | 0.0 | 4.3 | 0.00 | 0.00 | 0.00 | 67 | 1021.2 |
| 20260901195231 | 88 | 30 | 0.9 | 4.3 | 0.00 | 0.00 | 0.00 | 65 | 1021.2 |
| 20260901195126 | 88 | 347 | 0.9 | 4.3 | 0.00 | 0.00 | 0.00 | 65 | 1021.2 |
| 20260901195024 | 88 | 38 | 0.0 | 4.3 | 0.00 | 0.00 | 0.00 | 65 | 1021.2 |
| 20260901194925 | 88 | 25 | 0.0 | 3.5 | 0.00 | 0.00 | 0.00 | 64 | 1021.3 |
| 20260901194824 | 88 | 42 | 0.0 | 5.2 | 0.00 | 0.01 | 0.00 | 65 | 1021.2 |
| 20260901194725 | 88 | 67 | 0.0 | 5.2 | 0.00 | 0.01 | 0.00 | 65 | 1021.3 |
| 20260901194625 | 88 | 70 | 0.0 | 5.2 | 0.00 | 0.01 | 0.00 | 63 | 1021.2 |
| 20260901194521 | 88 | 45 | 0.0 | 5.2 | 0.00 | 0.01 | 0.00 | 63 | 1021.3 |
| 20260901194423 | 88 | 30 | 0.0 | 5.2 | 0.00 | 0.01 | 0.00 | 65 | 1021.3 |
| 20260901194321 | 88 | 16 | 0.0 | 5.2 | 0.00 | 0.01 | 0.00 | 65 | 1021.3 |
| 20260901194219 | 88 | 38 | 0.0 | 5.2 | 0.00 | 0.01 | 0.00 | 66 | 1021.3 |
| 20260901194112 | 88 | 344 | 0.9 | 5.2 | 0.00 | 0.01 | 0.00 | 65 | 1021.3 |
| 20260901194012 | 88 | 344 | 0.9 | 5.2 | 0.00 | 0.01 | 0.00 | 64 | 1021.3 |
| 20260901193912 | 88 | 23 | 0.9 | 5.2 | 0.00 | 0.01 | 0.00 | 63 | 1021.3 |
| 20260901193811 | 88 | 23 | 0.9 | 5.2 | 0.00 | 0.01 | 0.00 | 64 | 1021.3 |
| 20260901193709 | 88 | 331 | 0.9 | 5.2 | 0.00 | 0.02 | 0.00 | 65 | 1021.3 |
| 20260901193605 | 88 | 311 | 0.9 | 5.2 | 0.00 | 0.03 | 0.00 | 62 | 1021.3 |
| 20260901193501 | 88 | 311 | 0.9 | 5.2 | 0.00 | 0.04 | 0.00 | 63 | 1021.3 |
| 20260901193401 | 88 | 310 | 0.9 | 5.2 | 0.00 | 0.05 | 0.00 | 65 | 1021.3 |
| 20260901193303 | 88 | 331 | 0.9 | 5.2 | 0.00 | 0.05 | 0.00 | 66 | 1021.4 |
| 20260901193203 | 87 | 339 | 0.9 | 5.2 | 0.00 | 0.05 | 0.00 | 66 | 1021.3 |
| 20260901193103 | 87 | 329 | 0.9 | 5.2 | 0.00 | 0.06 | 0.00 | 66 | 1021.3 |